Wetterdaten: Samstag, 02.04.2022
Datum Zeit Temp. Aussen Temp. o. S. Temp +5cm Feuchte Auss Luftdruck Regen Sonnenschein Regendauer Solar Windben Empfang
02.04.2022 00:00 0,7 C 0,0 C -2,2 C 96 % 1013,3 hPa 0,0 l/m 0 min 0 min 0 W/m 16,1 km/h (3 Bft) 97,87 %
02.04.2022 00:02 0,7 C 0,0 C -2,2 C 96 % 1013,3 hPa 0,0 l/m 0 min 0 min 0 W/m 12,9 km/h (3 Bft) 97,56 %
02.04.2022 00:04 0,7 C 0,0 C -2,2 C 97 % 1013,4 hPa 0,0 l/m 0 min 0 min 0 W/m 16,1 km/h (3 Bft) 97,87 %
02.04.2022 00:08 0,6 C 0,0 C -2,2 C 97 % 1013,3 hPa 0,0 l/m 0 min 0 min 0 W/m 38,6 km/h (5 Bft) 95,70 %
02.04.2022 00:10 0,6 C 0,0 C -2,2 C 96 % 1013,3 hPa 0,0 l/m 0 min 0 min 0 W/m 25,7 km/h (4 Bft) 95,74 %
02.04.2022 00:12 0,6 C 0,0 C -2,2 C 96 % 1013,3 hPa 0,0 l/m 0 min 2 min 0 W/m 19,3 km/h (3 Bft) 97,87 %
02.04.2022 00:14 0,6 C 0,0 C -2,2 C 97 % 1013,3 hPa 0,0 l/m 0 min 0 min 0 W/m 22,5 km/h (4 Bft) 95,74 %
02.04.2022 00:16 0,6 C 0,0 C -2,2 C 96 % 1013,4 hPa 0,0 l/m 0 min 0 min 0 W/m 19,3 km/h (3 Bft) 97,83 %
02.04.2022 00:18 0,6 C 0,0 C -2,2 C 97 % 1013,4 hPa 0,0 l/m 0 min 0 min 0 W/m 12,9 km/h (3 Bft) 97,87 %
02.04.2022 00:20 0,6 C 0,0 C -2,2 C 97 % 1013,3 hPa 0,0 l/m 0 min 0 min 0 W/m 16,1 km/h (3 Bft) 95,74 %
02.04.2022 00:22 0,6 C 0,0 C -2,2 C 97 % 1013,4 hPa 0,0 l/m 0 min 0 min 0 W/m 12,9 km/h (3 Bft) 97,87 %
02.04.2022 00:24 0,6 C 0,0 C -2,2 C 97 % 1013,4 hPa 0,0 l/m 0 min 0 min 0 W/m 12,9 km/h (3 Bft) 92,31 %
02.04.2022 00:26 0,6 C 0,0 C -2,2 C 97 % 1013,4 hPa 0,0 l/m 0 min 0 min 0 W/m 12,9 km/h (3 Bft) 95,74 %
02.04.2022 00:28 0,6 C 0,0 C -2,2 C 97 % 1013,4 hPa 0,0 l/m 0 min 0 min 0 W/m 25,7 km/h (4 Bft) 95,65 %
02.04.2022 00:30 0,6 C 0,0 C -2,2 C 97 % 1013,4 hPa 0,0 l/m 0 min 0 min 0 W/m 19,3 km/h (3 Bft) 95,74 %
02.04.2022 00:32 0,6 C 0,0 C -2,2 C 97 % 1013,5 hPa 0,0 l/m 0 min 0 min 0 W/m 19,3 km/h (3 Bft) 97,87 %
02.04.2022 00:34 0,6 C 0,0 C -2,2 C 97 % 1013,5 hPa 0,0 l/m 0 min 0 min 0 W/m 16,1 km/h (3 Bft) 97,87 %
02.04.2022 00:36 0,6 C 0,0 C -2,2 C 97 % 1013,5 hPa 0,0 l/m 0 min 0 min 0 W/m 12,9 km/h (3 Bft) 97,87 %
02.04.2022 00:38 0,6 C 0,0 C -2,2 C 97 % 1013,5 hPa 0,0 l/m 0 min 0 min 0 W/m 16,1 km/h (3 Bft) 97,87 %
02.04.2022 00:40 0,6 C 0,0 C -2,2 C 97 % 1013,5 hPa 0,0 l/m 0 min 0 min 0 W/m 19,3 km/h (3 Bft) 97,83 %
02.04.2022 00:42 0,6 C 0,0 C -2,2 C 97 % 1013,5 hPa 0,0 l/m 0 min 0 min 0 W/m 16,1 km/h (3 Bft) 97,50 %
02.04.2022 00:44 0,6 C 0,0 C -2,2 C 97 % 1013,5 hPa 0,0 l/m 0 min 0 min 0 W/m 16,1 km/h (3 Bft) 97,87 %
02.04.2022 00:46 0,6 C 0,0 C -2,2 C 97 % 1013,5 hPa 0,0 l/m 0 min 0 min 0 W/m 25,7 km/h (4 Bft) 100,00 %
02.04.2022 00:48 0,6 C 0,0 C -2,2 C 97 % 1013,6 hPa 0,0 l/m 0 min 0 min 0 W/m 12,9 km/h (3 Bft) 100,00 %
02.04.2022 00:50 0,6 C 0,0 C -2,2 C 97 % 1013,6 hPa 0,0 l/m 0 min 0 min 0 W/m 12,9 km/h (3 Bft) 100,00 %
02.04.2022 00:52 0,6 C 0,0 C -2,2 C 97 % 1013,6 hPa 0,0 l/m 0 min 0 min 0 W/m 19,3 km/h (3 Bft) 100,00 %
02.04.2022 00:54 0,6 C 0,0 C -2,2 C 97 % 1013,6 hPa 0,0 l/m 0 min 0 min 0 W/m 12,9 km/h (3 Bft) 100,00 %
02.04.2022 00:56 0,6 C 0,0 C -2,2 C 97 % 1013,5 hPa 0,0 l/m 0 min 0 min 0 W/m 19,3 km/h (3 Bft) 100,00 %
02.04.2022 00:58 0,6 C 0,0 C -2,2 C 97 % 1013,6 hPa 0,0 l/m 0 min 0 min 0 W/m 19,3 km/h (3 Bft) 100,00 %
02.04.2022 01:00 0,6 C 0,0 C -2,2 C 97 % 1013,6 hPa 0,0 l/m 0 min 0 min 0 W/m 22,5 km/h (4 Bft) 100,00 %
02.04.2022 01:02 0,6 C 0,0 C -2,2 C 97 % 1013,6 hPa 0,0 l/m 0 min 0 min 0 W/m 22,5 km/h (4 Bft) 100,00 %
02.04.2022 01:04 0,6 C 0,0 C -2,2 C 97 % 1013,6 hPa 0,0 l/m 0 min 0 min 0 W/m 16,1 km/h (3 Bft) 100,00 %
02.04.2022 01:06 0,6 C 0,0 C -2,2 C 97 % 1013,7 hPa 0,0 l/m 0 min 0 min 0 W/m 38,6 km/h (5 Bft) 100,00 %
02.04.2022 01:08 0,6 C 0,0 C -2,8 C 97 % 1013,6 hPa 0,0 l/m 0 min 0 min 0 W/m 29,0 km/h (5 Bft) 100,00 %
02.04.2022 01:10 0,6 C 0,0 C -2,2 C 97 % 1013,7 hPa 0,0 l/m 0 min 0 min 0 W/m 29,0 km/h (5 Bft) 97,87 %
02.04.2022 01:12 0,6 C 0,0 C -2,2 C 97 % 1013,6 hPa 0,0 l/m 0 min 0 min 0 W/m 19,3 km/h (3 Bft) 100,00 %
02.04.2022 01:14 0,6 C 0,0 C -2,2 C 97 % 1013,6 hPa 0,0 l/m 0 min 0 min 0 W/m 19,3 km/h (3 Bft) 97,87 %
02.04.2022 01:16 0,6 C 0,0 C -2,2 C 96 % 1013,6 hPa 0,0 l/m 0 min 0 min 0 W/m 19,3 km/h (3 Bft) 100,00 %
02.04.2022 01:18 0,6 C 0,0 C -2,2 C 96 % 1013,6 hPa 0,0 l/m 0 min 0 min 0 W/m 9,7 km/h (2 Bft) 100,00 %
02.04.2022 01:20 0,6 C 0,0 C -2,2 C 96 % 1013,7 hPa 0,0 l/m 0 min 0 min 0 W/m 16,1 km/h (3 Bft) 100,00 %
02.04.2022 01:22 0,6 C 0,0 C -2,2 C 97 % 1013,7 hPa 0,0 l/m 0 min 0 min 0 W/m 12,9 km/h (3 Bft) 100,00 %
02.04.2022 01:24 0,6 C 0,0 C -2,2 C 97 % 1013,7 hPa 0,0 l/m 0 min 0 min 0 W/m 38,6 km/h (5 Bft) 100,00 %
02.04.2022 01:26 0,6 C 0,0 C -2,2 C 96 % 1013,7 hPa 0,0 l/m 0 min 0 min 0 W/m 19,3 km/h (3 Bft) 100,00 %
02.04.2022 01:28 0,6 C 0,0 C -2,2 C 96 % 1013,7 hPa 0,0 l/m 0 min 0 min 0 W/m 16,1 km/h (3 Bft) 97,83 %
02.04.2022 01:30 0,6 C 0,0 C -2,2 C 96 % 1013,7 hPa 0,0 l/m 0 min 0 min 0 W/m 9,7 km/h (2 Bft) 100,00 %
02.04.2022 01:32 0,6 C 0,0 C -2,2 C 96 % 1013,7 hPa 0,0 l/m 0 min 0 min 0 W/m 16,1 km/h (3 Bft) 97,87 %
02.04.2022 01:34 0,6 C 0,0 C -2,2 C 96 % 1013,8 hPa 0,0 l/m 0 min 0 min 0 W/m 16,1 km/h (3 Bft) 100,00 %
02.04.2022 01:36 0,6 C 0,0 C -2,2 C 96 % 1013,7 hPa 0,0 l/m 0 min 0 min 0 W/m 9,7 km/h (2 Bft) 97,87 %
02.04.2022 01:38 0,6 C 0,0 C -2,2 C 96 % 1013,7 hPa 0,0 l/m 0 min 0 min 0 W/m 19,3 km/h (3 Bft) 95,65 %
02.04.2022 01:40 0,6 C 0,0 C -2,2 C 96 % 1013,6 hPa 0,0 l/m 0 min 0 min 0 W/m 19,3 km/h (3 Bft) 97,87 %
02.04.2022 01:42 0,6 C 0,0 C -2,2 C 96 % 1013,7 hPa 0,0 l/m 0 min 0 min 0 W/m 16,1 km/h (3 Bft) 100,00 %
02.04.2022 01:44 0,6 C 0,0 C -2,2 C 96 % 1013,7 hPa 0,0 l/m 0 min 0 min 0 W/m 19,3 km/h (3 Bft) 100,00 %
02.04.2022 01:46 0,6 C 0,0 C -2,2 C 96 % 1013,6 hPa 0,0 l/m 0 min 0 min 0 W/m 22,5 km/h (4 Bft) 97,87 %
02.04.2022 01:48 0,6 C 0,0 C -2,2 C 96 % 1013,6 hPa 0,0 l/m 0 min 0 min 0 W/m 12,9 km/h (3 Bft) 97,87 %
02.04.2022 01:50 0,6 C 0,0 C -2,2 C 96 % 1013,6 hPa 0,0 l/m 0 min 0 min 0 W/m 25,7 km/h (4 Bft) 97,83 %
02.04.2022 01:52 0,6 C 0,0 C -2,2 C 96 % 1013,6 hPa 0,0 l/m 0 min 0 min 0 W/m 19,3 km/h (3 Bft) 95,74 %
02.04.2022 01:54 0,6 C 0,0 C -2,2 C 96 % 1013,6 hPa 0,0 l/m 0 min 0 min 0 W/m 6,4 km/h (2 Bft) 95,74 %
02.04.2022 01:56 0,6 C 0,0 C -2,2 C 96 % 1013,5 hPa 0,0 l/m 0 min 0 min 0 W/m 16,1 km/h (3 Bft) 97,87 %
02.04.2022 01:58 0,6 C 0,0 C -2,2 C 96 % 1013,6 hPa 0,0 l/m 0 min 0 min 0 W/m 19,3 km/h (3 Bft) 97,87 %
02.04.2022 02:00 0,6 C 0,0 C -2,2 C 96 % 1013,5 hPa 0,0 l/m 0 min 0 min 0 W/m 16,1 km/h (3 Bft) 95,74 %
02.04.2022 02:02 0,6 C 0,0 C -2,2 C 96 % 1013,6 hPa 0,0 l/m 0 min 0 min 0 W/m 12,9 km/h (3 Bft) 91,30 %
02.04.2022 02:04 0,6 C 0,0 C -2,2 C 96 % 1013,6 hPa 0,0 l/m 0 min 0 min 0 W/m 16,1 km/h (3 Bft) 94,64 %
02.04.2022 02:06 0,6 C 0,0 C -2,2 C 96 % 1013,5 hPa 0,0 l/m 0 min 0 min 0 W/m 19,3 km/h (3 Bft) 93,62 %
02.04.2022 02:08 0,6 C 0,0 C -2,2 C 96 % 1013,6 hPa 0,0 l/m 0 min 0 min 0 W/m 19,3 km/h (3 Bft) 94,74 %
02.04.2022 02:10 0,6 C 0,0 C -2,2 C 96 % 1013,6 hPa 0,0 l/m 0 min 0 min 0 W/m 12,9 km/h (3 Bft) 96,61 %
02.04.2022 02:12 0,6 C 0,0 C -2,2 C 96 % 1013,6 hPa 0,0 l/m 0 min 0 min 0 W/m 16,1 km/h (3 Bft) 91,30 %
02.04.2022 02:14 0,6 C 0,0 C -2,2 C 96 % 1013,6 hPa 0,0 l/m 0 min 0 min 0 W/m 16,1 km/h (3 Bft) 91,49 %
02.04.2022 02:16 0,6 C 0,0 C -2,2 C 96 % 1013,6 hPa 0,0 l/m 0 min 0 min 0 W/m 22,5 km/h (4 Bft) 93,62 %
02.04.2022 02:18 0,6 C 0,0 C -2,2 C 96 % 1013,7 hPa 0,0 l/m 0 min 0 min 0 W/m 22,5 km/h (4 Bft) 91,49 %
02.04.2022 02:20 0,6 C 0,0 C -2,2 C 96 % 1013,7 hPa 0,0 l/m 0 min 0 min 0 W/m 25,7 km/h (4 Bft) 93,62 %
02.04.2022 02:22 0,6 C 0,0 C -2,2 C 96 % 1013,7 hPa 0,0 l/m 0 min 0 min 0 W/m 16,1 km/h (3 Bft) 84,78 %
02.04.2022 02:24 0,6 C 0,0 C -2,2 C 96 % 1013,7 hPa 0,0 l/m 0 min 0 min 0 W/m 16,1 km/h (3 Bft) 57,45 %
02.04.2022 02:26 0,6 C 0,0 C -2,2 C 96 % 1013,8 hPa 0,0 l/m 0 min 0 min 0 W/m 12,9 km/h (3 Bft) 93,62 %
02.04.2022 02:28 0,6 C 0,0 C -2,2 C 96 % 1013,8 hPa 0,0 l/m 0 min 0 min 0 W/m 9,7 km/h (2 Bft) 93,62 %
02.04.2022 02:30 0,6 C 0,0 C -2,2 C 96 % 1013,8 hPa 0,0 l/m 0 min 0 min 0 W/m 12,9 km/h (3 Bft) 95,74 %
02.04.2022 02:32 0,6 C 0,0 C -2,2 C 96 % 1013,8 hPa 0,0 l/m 0 min 0 min 0 W/m 16,1 km/h (3 Bft) 93,62 %
02.04.2022 02:34 0,6 C 0,0 C -2,2 C 96 % 1013,8 hPa 0,0 l/m 0 min 0 min 0 W/m 6,4 km/h (2 Bft) 93,48 %
02.04.2022 02:36 0,6 C 0,0 C -2,2 C 96 % 1013,8 hPa 0,0 l/m 0 min 0 min 0 W/m 16,1 km/h (3 Bft) 95,74 %
02.04.2022 02:38 0,6 C 0,0 C -2,2 C 96 % 1013,8 hPa 0,0 l/m 0 min 0 min 0 W/m 16,1 km/h (3 Bft) 93,62 %
02.04.2022 02:40 0,6 C 0,0 C -2,2 C 96 % 1013,7 hPa 0,0 l/m 0 min 0 min 0 W/m 12,9 km/h (3 Bft) 97,14 %
02.04.2022 02:42 0,6 C 0,0 C -2,2 C 96 % 1013,7 hPa 0,0 l/m 0 min 0 min 0 W/m 22,5 km/h (4 Bft) 93,62 %
02.04.2022 02:44 0,6 C 0,0 C -2,2 C 96 % 1013,7 hPa 0,0 l/m 0 min 0 min 0 W/m 16,1 km/h (3 Bft) 95,74 %
02.04.2022 02:46 0,6 C 0,0 C -2,2 C 96 % 1013,7 hPa 0,0 l/m 0 min 0 min 0 W/m 22,5 km/h (4 Bft) 93,62 %
02.04.2022 02:48 0,6 C 0,0 C -2,2 C 96 % 1013,8 hPa 0,0 l/m 0 min 0 min 0 W/m 19,3 km/h (3 Bft) 97,83 %
02.04.2022 02:50 0,6 C 0,0 C -2,2 C 96 % 1013,7 hPa 0,0 l/m 0 min 0 min 0 W/m 22,5 km/h (4 Bft) 95,74 %
02.04.2022 02:52 0,6 C 0,0 C -2,2 C 96 % 1013,7 hPa 0,0 l/m 0 min 0 min 0 W/m 19,3 km/h (3 Bft) 100,00 %
02.04.2022 02:54 0,6 C 0,0 C -2,2 C 96 % 1013,8 hPa 0,0 l/m 0 min 0 min 0 W/m 25,7 km/h (4 Bft) 97,87 %
02.04.2022 02:56 0,6 C 0,0 C -2,2 C 96 % 1013,7 hPa 0,0 l/m 0 min 0 min 0 W/m 12,9 km/h (3 Bft) 97,87 %
02.04.2022 02:58 0,6 C 0,0 C -2,2 C 96 % 1013,7 hPa 0,0 l/m 0 min 0 min 0 W/m 22,5 km/h (4 Bft) 97,87 %
02.04.2022 03:00 0,6 C 0,0 C -2,2 C 96 % 1013,7 hPa 0,0 l/m 0 min 0 min 0 W/m 19,3 km/h (3 Bft) 100,00 %
02.04.2022 03:02 0,6 C 0,0 C -2,2 C 96 % 1013,8 hPa 0,0 l/m 0 min 0 min 0 W/m 32,2 km/h (5 Bft) 100,00 %
02.04.2022 03:04 0,6 C 0,0 C -2,2 C 96 % 1013,7 hPa 0,0 l/m 0 min 0 min 0 W/m 16,1 km/h (3 Bft) 97,87 %
02.04.2022 03:06 0,6 C 0,0 C -2,2 C 96 % 1013,7 hPa 0,0 l/m 0 min 0 min 0 W/m 22,5 km/h (4 Bft) 100,00 %
02.04.2022 03:08 0,6 C 0,0 C -2,8 C 96 % 1013,8 hPa 0,0 l/m 0 min 0 min 0 W/m 19,3 km/h (3 Bft) 100,00 %
02.04.2022 03:10 0,6 C 0,0 C -2,2 C 96 % 1013,8 hPa 0,0 l/m 0 min 0 min 0 W/m 16,1 km/h (3 Bft) 100,00 %
02.04.2022 03:12 0,6 C 0,0 C -2,2 C 96 % 1013,8 hPa 0,0 l/m 0 min 0 min 0 W/m 16,1 km/h (3 Bft) 100,00 %
02.04.2022 03:14 0,6 C 0,0 C -2,2 C 96 % 1013,8 hPa 0,0 l/m 0 min 0 min 0 W/m 9,7 km/h (2 Bft) 97,87 %
02.04.2022 03:16 0,6 C 0,0 C -2,8 C 96 % 1013,8 hPa 0,0 l/m 0 min 0 min 0 W/m 19,3 km/h (3 Bft) 100,00 %
02.04.2022 03:18 0,6 C 0,0 C -2,8 C 96 % 1013,8 hPa 0,0 l/m 0 min 0 min 0 W/m 29,0 km/h (5 Bft) 97,87 %
02.04.2022 03:20 0,6 C 0,0 C -2,8 C 96 % 1013,8 hPa 0,0 l/m 0 min 0 min 0 W/m 19,3 km/h (3 Bft) 100,00 %
02.04.2022 03:22 0,6 C 0,0 C -2,8 C 96 % 1013,7 hPa 0,0 l/m 0 min 0 min 0 W/m 29,0 km/h (5 Bft) 100,00 %
02.04.2022 03:24 0,6 C 0,0 C -2,8 C 96 % 1013,7 hPa 0,0 l/m 0 min 0 min 0 W/m 32,2 km/h (5 Bft) 100,00 %
02.04.2022 03:26 0,6 C 0,0 C -2,2 C 95 % 1013,7 hPa 0,0 l/m 0 min 0 min 0 W/m 12,9 km/h (3 Bft) 100,00 %
02.04.2022 03:28 0,6 C 0,0 C -2,2 C 95 % 1013,8 hPa 0,0 l/m 0 min 0 min 0 W/m 25,7 km/h (4 Bft) 100,00 %
02.04.2022 03:30 0,6 C 0,0 C -2,2 C 95 % 1013,7 hPa 0,0 l/m 0 min 0 min 0 W/m 19,3 km/h (3 Bft) 97,87 %
02.04.2022 03:32 0,6 C 0,0 C -2,8 C 95 % 1013,7 hPa 0,0 l/m 0 min 0 min 0 W/m 16,1 km/h (3 Bft) 97,87 %
02.04.2022 03:34 0,6 C 0,0 C -2,8 C 95 % 1013,8 hPa 0,0 l/m 0 min 0 min 0 W/m 19,3 km/h (3 Bft) 100,00 %
02.04.2022 03:36 0,6 C 0,0 C -2,8 C 95 % 1013,8 hPa 0,0 l/m 0 min 0 min 0 W/m 12,9 km/h (3 Bft) 97,83 %
02.04.2022 03:38 0,6 C 0,0 C -2,8 C 95 % 1013,8 hPa 0,0 l/m 0 min 0 min 0 W/m 16,1 km/h (3 Bft) 97,87 %
02.04.2022 03:40 0,6 C 0,0 C -2,8 C 95 % 1013,7 hPa 0,0 l/m 0 min 0 min 0 W/m 22,5 km/h (4 Bft) 100,00 %
02.04.2022 03:42 0,6 C 0,0 C -2,8 C 95 % 1013,7 hPa 0,0 l/m 0 min 0 min 0 W/m 12,9 km/h (3 Bft) 97,87 %
02.04.2022 03:44 0,6 C 0,0 C -2,8 C 95 % 1013,8 hPa 0,0 l/m 0 min 0 min 0 W/m 16,1 km/h (3 Bft) 100,00 %
02.04.2022 03:46 0,6 C 0,0 C -2,8 C 95 % 1013,7 hPa 0,0 l/m 0 min 0 min 0 W/m 12,9 km/h (3 Bft) 97,87 %
02.04.2022 03:48 0,6 C 0,0 C -2,8 C 95 % 1013,7 hPa 0,0 l/m 0 min 0 min 0 W/m 16,1 km/h (3 Bft) 95,65 %
02.04.2022 03:50 0,6 C 0,0 C -2,8 C 95 % 1013,7 hPa 0,0 l/m 0 min 0 min 0 W/m 19,3 km/h (3 Bft) 95,74 %
02.04.2022 03:52 0,6 C 0,0 C -2,8 C 95 % 1013,8 hPa 0,0 l/m 0 min 0 min 0 W/m 12,9 km/h (3 Bft) 95,74 %
02.04.2022 03:54 0,6 C 0,0 C -2,8 C 95 % 1013,8 hPa 0,0 l/m 0 min 0 min 0 W/m 12,9 km/h (3 Bft) 51,16 %
02.04.2022 03:56 0,6 C 0,0 C -2,8 C 95 % 1013,9 hPa 0,0 l/m 0 min 0 min 0 W/m 22,5 km/h (4 Bft) 95,74 %
02.04.2022 03:58 0,6 C 0,0 C -2,8 C 95 % 1013,8 hPa 0,0 l/m 0 min 0 min 0 W/m 19,3 km/h (3 Bft) 97,87 %
02.04.2022 04:00 0,6 C 0,0 C -2,8 C 94 % 1013,8 hPa 0,0 l/m 0 min 0 min 0 W/m 16,1 km/h (3 Bft) 97,83 %
02.04.2022 04:05 0,6 C 0,0 C -2,8 C 94 % 1013,8 hPa 0,0 l/m 0 min 0 min 0 W/m 12,9 km/h (3 Bft) 100,00 %
02.04.2022 04:06 0,6 C 0,0 C -2,8 C 94 % 1013,8 hPa 0,0 l/m 0 min 0 min 0 W/m 9,7 km/h (2 Bft) 91,67 %
02.04.2022 04:08 0,6 C 0,0 C -2,8 C 94 % 1013,9 hPa 0,0 l/m 0 min 0 min 0 W/m 12,9 km/h (3 Bft) 97,87 %
02.04.2022 04:10 0,6 C 0,6 C -2,8 C 94 % 1013,9 hPa 0,0 l/m 0 min 0 min 0 W/m 12,9 km/h (3 Bft) 97,87 %
02.04.2022 04:12 0,6 C 0,6 C -2,2 C 94 % 1013,9 hPa 0,0 l/m 0 min 0 min 0 W/m 16,1 km/h (3 Bft) 97,83 %
02.04.2022 04:14 0,6 C 0,6 C -2,8 C 94 % 1013,9 hPa 0,0 l/m 0 min 0 min 0 W/m 12,9 km/h (3 Bft) 100,00 %
02.04.2022 04:16 0,6 C 0,0 C -2,8 C 94 % 1013,8 hPa 0,0 l/m 0 min 0 min 0 W/m 12,9 km/h (3 Bft) 97,87 %
02.04.2022 04:18 0,7 C 0,0 C -2,8 C 94 % 1013,9 hPa 0,0 l/m 0 min 0 min 0 W/m 19,3 km/h (3 Bft) 100,00 %
02.04.2022 04:20 0,7 C 0,0 C -2,8 C 94 % 1013,9 hPa 0,0 l/m 0 min 0 min 0 W/m 12,9 km/h (3 Bft) 100,00 %
02.04.2022 04:22 0,7 C 0,0 C -2,8 C 93 % 1013,9 hPa 0,0 l/m 0 min 0 min 0 W/m 12,9 km/h (3 Bft) 95,74 %
02.04.2022 04:24 0,7 C 0,6 C -2,8 C 93 % 1014,0 hPa 0,0 l/m 0 min 0 min 0 W/m 19,3 km/h (3 Bft) 100,00 %
02.04.2022 04:26 0,7 C 0,6 C -2,8 C 93 % 1014,0 hPa 0,0 l/m 0 min 0 min 0 W/m 9,7 km/h (2 Bft) 100,00 %
02.04.2022 04:28 0,7 C 0,0 C -2,8 C 93 % 1013,9 hPa 0,0 l/m 0 min 0 min 0 W/m 12,9 km/h (3 Bft) 100,00 %
02.04.2022 04:30 0,7 C 0,0 C -2,8 C 93 % 1013,9 hPa 0,0 l/m 0 min 0 min 0 W/m 12,9 km/h (3 Bft) 97,87 %
02.04.2022 04:32 0,7 C 0,0 C -2,8 C 93 % 1013,9 hPa 0,0 l/m 0 min 0 min 0 W/m 6,4 km/h (2 Bft) 97,87 %
02.04.2022 04:34 0,7 C 0,0 C -2,8 C 93 % 1013,9 hPa 0,0 l/m 0 min 0 min 0 W/m 12,9 km/h (3 Bft) 97,87 %
02.04.2022 04:36 0,7 C 0,0 C -2,8 C 93 % 1013,9 hPa 0,0 l/m 0 min 0 min 0 W/m 12,9 km/h (3 Bft) 100,00 %
02.04.2022 04:38 0,7 C 0,0 C -2,8 C 93 % 1014,0 hPa 0,0 l/m 0 min 0 min 0 W/m 16,1 km/h (3 Bft) 65,96 %
02.04.2022 04:40 0,7 C 0,0 C -2,8 C 92 % 1014,0 hPa 0,0 l/m 0 min 0 min 0 W/m 9,7 km/h (2 Bft) 88,64 %
02.04.2022 04:42 0,7 C 0,0 C -2,8 C 92 % 1014,0 hPa 0,0 l/m 0 min 0 min 0 W/m 9,7 km/h (2 Bft) 97,87 %
02.04.2022 04:44 0,7 C 0,0 C -2,8 C 92 % 1014,0 hPa 0,0 l/m 0 min 0 min 0 W/m 9,7 km/h (2 Bft) 100,00 %
02.04.2022 04:46 0,7 C 0,0 C -2,8 C 92 % 1014,0 hPa 0,0 l/m 0 min 0 min 0 W/m 12,9 km/h (3 Bft) 100,00 %
02.04.2022 04:48 0,7 C 0,0 C -2,8 C 92 % 1014,0 hPa 0,0 l/m 0 min 0 min 0 W/m 25,7 km/h (4 Bft) 97,83 %
02.04.2022 04:50 0,7 C 0,0 C -2,8 C 92 % 1014,0 hPa 0,0 l/m 0 min 0 min 0 W/m 6,4 km/h (2 Bft) 97,87 %
02.04.2022 04:52 0,7 C 0,0 C -2,8 C 92 % 1014,0 hPa 0,0 l/m 0 min 0 min 0 W/m 9,7 km/h (2 Bft) 95,74 %
02.04.2022 04:54 0,7 C 0,0 C -2,8 C 92 % 1014,0 hPa 0,0 l/m 0 min 0 min 0 W/m 22,5 km/h (4 Bft) 97,87 %
02.04.2022 04:56 0,7 C 0,0 C -2,8 C 92 % 1014,0 hPa 0,0 l/m 0 min 0 min 0 W/m 12,9 km/h (3 Bft) 97,87 %
02.04.2022 04:58 0,7 C 0,0 C -2,8 C 91 % 1014,0 hPa 0,0 l/m 0 min 0 min 0 W/m 9,7 km/h (2 Bft) 97,83 %
02.04.2022 05:00 0,7 C 0,0 C -2,8 C 91 % 1014,0 hPa 0,0 l/m 0 min 0 min 0 W/m 9,7 km/h (2 Bft) 97,87 %
02.04.2022 05:02 0,7 C 0,0 C -2,8 C 91 % 1014,1 hPa 0,0 l/m 0 min 0 min 0 W/m 19,3 km/h (3 Bft) 95,74 %
02.04.2022 05:04 0,7 C 0,0 C -2,8 C 91 % 1014,0 hPa 0,0 l/m 0 min 0 min 0 W/m 16,1 km/h (3 Bft) 97,87 %
02.04.2022 05:06 0,7 C 0,6 C -2,8 C 91 % 1014,0 hPa 0,0 l/m 0 min 0 min 0 W/m 12,9 km/h (3 Bft) 97,87 %
02.04.2022 05:08 0,7 C 0,6 C -2,8 C 91 % 1014,1 hPa 0,0 l/m 0 min 0 min 0 W/m 9,7 km/h (2 Bft) 100,00 %
02.04.2022 05:10 0,8 C 0,6 C -2,8 C 91 % 1014,1 hPa 0,0 l/m 0 min 0 min 0 W/m 19,3 km/h (3 Bft) 100,00 %
02.04.2022 05:12 0,8 C 0,6 C -2,8 C 90 % 1014,1 hPa 0,0 l/m 0 min 0 min 0 W/m 16,1 km/h (3 Bft) 100,00 %
02.04.2022 05:14 0,8 C 0,6 C -2,8 C 90 % 1014,1 hPa 0,0 l/m 0 min 0 min 0 W/m 9,7 km/h (2 Bft) 100,00 %
02.04.2022 05:16 0,8 C 0,6 C -2,8 C 90 % 1014,1 hPa 0,0 l/m 0 min 0 min 0 W/m 16,1 km/h (3 Bft) 97,87 %
02.04.2022 05:18 0,8 C 0,6 C -2,8 C 90 % 1014,1 hPa 0,0 l/m 0 min 0 min 0 W/m 9,7 km/h (2 Bft) 97,87 %
02.04.2022 05:20 0,8 C 0,6 C -2,8 C 90 % 1014,1 hPa 0,0 l/m 0 min 0 min 0 W/m 12,9 km/h (3 Bft) 95,74 %
02.04.2022 05:22 0,8 C 0,6 C -2,8 C 89 % 1014,1 hPa 0,0 l/m 0 min 0 min 0 W/m 22,5 km/h (4 Bft) 95,65 %
02.04.2022 05:24 0,8 C 0,6 C -2,8 C 89 % 1014,2 hPa 0,0 l/m 0 min 0 min 0 W/m 12,9 km/h (3 Bft) 95,24 %
02.04.2022 05:26 0,8 C 0,6 C -2,8 C 89 % 1014,2 hPa 0,0 l/m 0 min 0 min 0 W/m 16,1 km/h (3 Bft) 95,74 %
02.04.2022 05:28 0,8 C 0,6 C -2,8 C 89 % 1014,2 hPa 0,0 l/m 0 min 0 min 0 W/m 12,9 km/h (3 Bft) 95,74 %
02.04.2022 05:30 0,8 C 0,6 C -2,8 C 89 % 1014,2 hPa 0,0 l/m 0 min 0 min 0 W/m 12,9 km/h (3 Bft) 93,62 %
02.04.2022 05:32 0,8 C 0,6 C -2,8 C 89 % 1014,2 hPa 0,0 l/m 0 min 0 min 0 W/m 9,7 km/h (2 Bft) 95,74 %
02.04.2022 05:34 0,9 C 0,6 C -2,8 C 88 % 1014,2 hPa 0,0 l/m 0 min 0 min 0 W/m 19,3 km/h (3 Bft) 95,65 %
02.04.2022 05:36 0,8 C 0,6 C -2,8 C 88 % 1014,2 hPa 0,0 l/m 0 min 0 min 0 W/m 16,1 km/h (3 Bft) 95,74 %
02.04.2022 05:38 0,9 C 0,6 C -2,8 C 88 % 1014,2 hPa 0,0 l/m 0 min 0 min 0 W/m 16,1 km/h (3 Bft) 95,74 %
02.04.2022 05:40 0,9 C 0,6 C -2,8 C 88 % 1014,2 hPa 0,0 l/m 0 min 0 min 0 W/m 9,7 km/h (2 Bft) 95,74 %
02.04.2022 05:42 0,9 C 0,6 C -2,8 C 88 % 1014,2 hPa 0,0 l/m 0 min 0 min 0 W/m 22,5 km/h (4 Bft) 93,62 %
02.04.2022 05:44 0,9 C 0,6 C -2,8 C 88 % 1014,2 hPa 0,0 l/m 0 min 0 min 0 W/m 12,9 km/h (3 Bft) 93,62 %
02.04.2022 05:46 0,9 C 0,6 C -2,8 C 87 % 1014,2 hPa 0,0 l/m 0 min 0 min 0 W/m 12,9 km/h (3 Bft) 95,65 %
02.04.2022 05:48 0,9 C 0,6 C -2,8 C 87 % 1014,3 hPa 0,0 l/m 0 min 0 min 0 W/m 12,9 km/h (3 Bft) 93,62 %
02.04.2022 05:50 0,9 C 0,6 C -2,2 C 87 % 1014,3 hPa 0,0 l/m 0 min 0 min 0 W/m 16,1 km/h (3 Bft) 95,74 %
02.04.2022 05:52 0,9 C 0,6 C -2,2 C 87 % 1014,3 hPa 0,0 l/m 0 min 0 min 0 W/m 9,7 km/h (2 Bft) 95,74 %
02.04.2022 05:54 0,9 C 0,6 C -2,2 C 87 % 1014,3 hPa 0,0 l/m 0 min 0 min 0 W/m 22,5 km/h (4 Bft) 95,74 %
02.04.2022 05:56 0,9 C 0,6 C -2,2 C 86 % 1014,4 hPa 0,0 l/m 0 min 0 min 0 W/m 19,3 km/h (3 Bft) 95,74 %
02.04.2022 05:58 0,9 C 0,6 C -2,2 C 86 % 1014,3 hPa 0,0 l/m 0 min 0 min 0 W/m 19,3 km/h (3 Bft) 97,83 %
02.04.2022 06:00 0,9 C 0,6 C -2,2 C 86 % 1014,4 hPa 0,0 l/m 0 min 0 min 0 W/m 12,9 km/h (3 Bft) 97,87 %
02.04.2022 06:02 0,9 C 0,6 C -2,2 C 86 % 1014,4 hPa 0,0 l/m 0 min 0 min 0 W/m 19,3 km/h (3 Bft) 97,87 %
02.04.2022 06:04 0,9 C 0,6 C -2,2 C 85 % 1014,4 hPa 0,0 l/m 0 min 0 min 0 W/m 16,1 km/h (3 Bft) 97,87 %
02.04.2022 06:08 0,9 C 0,6 C -2,2 C 85 % 1014,4 hPa 0,0 l/m 0 min 0 min 0 W/m 19,3 km/h (3 Bft) 94,62 %
02.04.2022 06:10 1,0 C 0,6 C -2,2 C 85 % 1014,5 hPa 0,0 l/m 0 min 0 min 0 W/m 16,1 km/h (3 Bft) 97,87 %
02.04.2022 06:12 1,0 C 0,6 C -2,2 C 85 % 1014,4 hPa 0,0 l/m 0 min 0 min 0 W/m 12,9 km/h (3 Bft) 97,87 %
02.04.2022 06:14 1,0 C 0,6 C -2,2 C 85 % 1014,4 hPa 0,0 l/m 0 min 0 min 0 W/m 12,9 km/h (3 Bft) 100,00 %
02.04.2022 06:16 1,0 C 0,6 C -2,2 C 84 % 1014,4 hPa 0,0 l/m 0 min 0 min 0 W/m 16,1 km/h (3 Bft) 97,87 %
02.04.2022 06:18 1,1 C 0,6 C -2,2 C 84 % 1014,5 hPa 0,0 l/m 0 min 0 min 0 W/m 22,5 km/h (4 Bft) 100,00 %
02.04.2022 06:20 1,1 C 0,6 C -2,2 C 84 % 1014,5 hPa 0,0 l/m 0 min 0 min 0 W/m 25,7 km/h (4 Bft) 100,00 %
02.04.2022 06:22 1,1 C 0,6 C -2,2 C 84 % 1014,4 hPa 0,0 l/m 0 min 0 min 0 W/m 12,9 km/h (3 Bft) 95,65 %
02.04.2022 06:24 1,1 C 0,6 C -2,2 C 83 % 1014,5 hPa 0,0 l/m 0 min 0 min 0 W/m 6,4 km/h (2 Bft) 100,00 %
02.04.2022 06:26 1,1 C 0,6 C -2,2 C 83 % 1014,5 hPa 0,0 l/m 0 min 0 min 0 W/m 22,5 km/h (4 Bft) 100,00 %
02.04.2022 06:28 1,1 C 0,6 C -2,2 C 83 % 1014,5 hPa 0,0 l/m 0 min 0 min 0 W/m 16,1 km/h (3 Bft) 100,00 %
02.04.2022 06:30 1,1 C 0,6 C -2,2 C 83 % 1014,5 hPa 0,0 l/m 0 min 0 min 0 W/m 16,1 km/h (3 Bft) 95,74 %
02.04.2022 06:32 1,1 C 0,6 C -2,2 C 83 % 1014,4 hPa 0,0 l/m 0 min 0 min 0 W/m 22,5 km/h (4 Bft) 100,00 %
02.04.2022 06:34 1,1 C 0,6 C -2,2 C 83 % 1014,5 hPa 0,0 l/m 0 min 0 min 0 W/m 12,9 km/h (3 Bft) 100,00 %
02.04.2022 06:36 1,1 C 0,6 C -2,2 C 82 % 1014,5 hPa 0,0 l/m 0 min 0 min 0 W/m 25,7 km/h (4 Bft) 100,00 %
02.04.2022 06:38 1,2 C 0,6 C -2,2 C 82 % 1014,5 hPa 0,0 l/m 0 min 0 min 0 W/m 9,7 km/h (2 Bft) 100,00 %
02.04.2022 06:40 1,2 C 0,6 C -2,2 C 82 % 1014,5 hPa 0,0 l/m 0 min 0 min 0 W/m 45,1 km/h (6 Bft) 97,87 %
02.04.2022 06:42 1,2 C 0,6 C -2,2 C 82 % 1014,6 hPa 0,0 l/m 0 min 0 min 0 W/m 22,5 km/h (4 Bft) 100,00 %
02.04.2022 06:44 1,2 C 0,6 C -2,2 C 81 % 1014,6 hPa 0,0 l/m 0 min 0 min 0 W/m 12,9 km/h (3 Bft) 100,00 %
02.04.2022 06:46 1,2 C 0,6 C -2,2 C 81 % 1014,6 hPa 0,0 l/m 0 min 0 min 0 W/m 22,5 km/h (4 Bft) 95,74 %
02.04.2022 06:48 1,2 C 0,6 C -2,2 C 81 % 1014,6 hPa 0,0 l/m 0 min 0 min 0 W/m 35,4 km/h (5 Bft) 97,87 %
02.04.2022 06:50 1,2 C 0,6 C -2,2 C 81 % 1014,7 hPa 0,0 l/m 0 min 0 min 0 W/m 25,7 km/h (4 Bft) 97,87 %
02.04.2022 06:52 1,3 C 0,6 C -2,2 C 80 % 1014,7 hPa 0,0 l/m 0 min 0 min 0 W/m 25,7 km/h (4 Bft) 97,87 %
02.04.2022 06:54 1,3 C 0,6 C -2,2 C 80 % 1014,8 hPa 0,0 l/m 0 min 0 min 0 W/m 22,5 km/h (4 Bft) 97,87 %
02.04.2022 06:56 1,3 C 0,6 C -2,2 C 80 % 1014,8 hPa 0,0 l/m 0 min 0 min 0 W/m 16,1 km/h (3 Bft) 45,95 %
02.04.2022 06:58 1,3 C 0,6 C -2,2 C 80 % 1014,8 hPa 0,0 l/m 0 min 0 min 0 W/m 25,7 km/h (4 Bft) 97,87 %
02.04.2022 07:00 1,3 C 0,6 C -2,2 C 80 % 1014,8 hPa 0,0 l/m 0 min 0 min 0 W/m 16,1 km/h (3 Bft) 97,87 %
02.04.2022 07:02 1,3 C 0,6 C -2,2 C 79 % 1014,8 hPa 0,0 l/m 0 min 0 min 0 W/m 35,4 km/h (5 Bft) 97,87 %
02.04.2022 07:04 1,3 C 0,6 C -2,2 C 79 % 1014,8 hPa 0,0 l/m 0 min 0 min 0 W/m 35,4 km/h (5 Bft) 97,87 %
02.04.2022 07:06 1,3 C 0,6 C -2,2 C 79 % 1014,9 hPa 0,0 l/m 0 min 0 min 0 W/m 22,5 km/h (4 Bft) 95,74 %
02.04.2022 07:08 1,3 C 0,6 C -2,2 C 79 % 1014,9 hPa 0,0 l/m 0 min 0 min 0 W/m 35,4 km/h (5 Bft) 97,83 %
02.04.2022 07:10 1,3 C 0,6 C -2,2 C 79 % 1014,9 hPa 0,0 l/m 0 min 0 min 0 W/m 38,6 km/h (5 Bft) 94,55 %
02.04.2022 07:12 1,3 C 0,6 C -2,2 C 79 % 1014,9 hPa 0,0 l/m 0 min 0 min 0 W/m 35,4 km/h (5 Bft) 94,00 %
02.04.2022 07:14 1,3 C 0,6 C -2,2 C 79 % 1014,9 hPa 0,0 l/m 0 min 0 min 0 W/m 35,4 km/h (5 Bft) 97,22 %
02.04.2022 07:16 1,3 C 0,6 C -2,2 C 79 % 1015,0 hPa 0,0 l/m 0 min 0 min 0 W/m 19,3 km/h (3 Bft) 96,55 %
02.04.2022 07:18 1,3 C 0,6 C -2,2 C 79 % 1014,9 hPa 0,0 l/m 0 min 0 min 1 W/m 25,7 km/h (4 Bft) 97,22 %
02.04.2022 07:20 1,3 C 0,6 C -2,2 C 79 % 1015,0 hPa 0,0 l/m 0 min 0 min 5 W/m 16,1 km/h (3 Bft) 96,23 %
02.04.2022 07:22 1,3 C 0,6 C -2,2 C 79 % 1015,0 hPa 0,0 l/m 0 min 0 min 5 W/m 22,5 km/h (4 Bft) 95,74 %
02.04.2022 07:24 1,3 C 0,6 C -2,2 C 79 % 1015,0 hPa 0,0 l/m 0 min 0 min 7 W/m 19,3 km/h (3 Bft) 95,74 %
02.04.2022 07:26 1,3 C 1,1 C -2,2 C 78 % 1015,0 hPa 0,0 l/m 0 min 0 min 7 W/m 32,2 km/h (5 Bft) 97,87 %
02.04.2022 07:28 1,3 C 1,1 C -2,2 C 78 % 1015,1 hPa 0,0 l/m 0 min 0 min 9 W/m 25,7 km/h (4 Bft) 97,87 %
02.04.2022 07:30 1,4 C 1,1 C -2,2 C 78 % 1015,1 hPa 0,0 l/m 0 min 0 min 10 W/m 25,7 km/h (4 Bft) 97,83 %
02.04.2022 07:32 1,4 C 0,6 C -2,2 C 78 % 1015,1 hPa 0,0 l/m 0 min 0 min 11 W/m 22,5 km/h (4 Bft) 97,87 %
02.04.2022 07:34 1,4 C 0,6 C -2,2 C 78 % 1015,1 hPa 0,0 l/m 0 min 0 min 12 W/m 22,5 km/h (4 Bft) 97,87 %
02.04.2022 07:36 1,4 C 0,6 C -2,2 C 78 % 1015,2 hPa 0,0 l/m 0 min 0 min 13 W/m 19,3 km/h (3 Bft) 95,74 %
02.04.2022 07:38 1,3 C 1,1 C -2,2 C 78 % 1015,2 hPa 0,0 l/m 0 min 0 min 15 W/m 25,7 km/h (4 Bft) 97,87 %
02.04.2022 07:40 1,4 C 1,1 C -2,2 C 78 % 1015,2 hPa 0,0 l/m 0 min 0 min 16 W/m 19,3 km/h (3 Bft) 97,83 %
02.04.2022 07:42 1,4 C 1,1 C -2,2 C 78 % 1015,2 hPa 0,0 l/m 0 min 0 min 17 W/m 29,0 km/h (5 Bft) 97,87 %
02.04.2022 07:44 1,4 C 1,1 C -2,2 C 78 % 1015,3 hPa 0,0 l/m 0 min 0 min 18 W/m 25,7 km/h (4 Bft) 97,87 %
02.04.2022 07:46 1,4 C 1,1 C -2,2 C 78 % 1015,3 hPa 0,0 l/m 0 min 0 min 19 W/m 16,1 km/h (3 Bft) 95,74 %
02.04.2022 07:48 1,4 C 1,1 C -2,2 C 78 % 1015,3 hPa 0,0 l/m 0 min 0 min 20 W/m 22,5 km/h (4 Bft) 95,74 %
02.04.2022 07:50 1,4 C 1,1 C -2,2 C 78 % 1015,3 hPa 0,0 l/m 0 min 0 min 21 W/m 12,9 km/h (3 Bft) 100,00 %
02.04.2022 07:52 1,4 C 1,1 C -2,2 C 79 % 1015,4 hPa 0,0 l/m 0 min 0 min 22 W/m 12,9 km/h (3 Bft) 100,00 %
02.04.2022 07:54 1,4 C 1,1 C -2,2 C 79 % 1015,4 hPa 0,0 l/m 0 min 0 min 23 W/m 22,5 km/h (4 Bft) 100,00 %
02.04.2022 07:56 1,4 C 1,1 C -1,7 C 78 % 1015,4 hPa 0,0 l/m 0 min 0 min 25 W/m 32,2 km/h (5 Bft) 100,00 %
02.04.2022 07:58 1,4 C 1,1 C -1,7 C 78 % 1015,4 hPa 0,0 l/m 0 min 0 min 25 W/m 25,7 km/h (4 Bft) 100,00 %
02.04.2022 08:00 1,4 C 1,1 C -1,7 C 78 % 1015,5 hPa 0,0 l/m 0 min 0 min 25 W/m 25,7 km/h (4 Bft) 97,87 %
02.04.2022 08:02 1,4 C 1,1 C -1,7 C 78 % 1015,5 hPa 0,0 l/m 0 min 0 min 26 W/m 38,6 km/h (5 Bft) 100,00 %
02.04.2022 08:04 1,4 C 1,1 C -1,7 C 78 % 1015,6 hPa 0,0 l/m 0 min 0 min 26 W/m 32,2 km/h (5 Bft) 100,00 %
02.04.2022 08:06 1,5 C 1,1 C -1,7 C 78 % 1015,6 hPa 0,0 l/m 0 min 0 min 26 W/m 12,9 km/h (3 Bft) 100,00 %
02.04.2022 08:08 1,5 C 1,1 C -1,7 C 78 % 1015,6 hPa 0,0 l/m 0 min 0 min 28 W/m 16,1 km/h (3 Bft) 95,74 %
02.04.2022 08:10 1,5 C 1,1 C -1,7 C 78 % 1015,6 hPa 0,0 l/m 0 min 0 min 28 W/m 25,7 km/h (4 Bft) 97,87 %
02.04.2022 08:12 1,5 C 1,1 C -1,7 C 78 % 1015,7 hPa 0,0 l/m 0 min 0 min 30 W/m 22,5 km/h (4 Bft) 97,87 %
02.04.2022 08:14 1,5 C 1,1 C -1,7 C 78 % 1015,7 hPa 0,0 l/m 0 min 0 min 31 W/m 25,7 km/h (4 Bft) 100,00 %
02.04.2022 08:16 1,5 C 1,1 C -1,7 C 78 % 1015,7 hPa 0,0 l/m 0 min 0 min 32 W/m 12,9 km/h (3 Bft) 100,00 %
02.04.2022 08:18 1,5 C 1,1 C -1,7 C 78 % 1015,7 hPa 0,0 l/m 0 min 0 min 33 W/m 19,3 km/h (3 Bft) 97,87 %
02.04.2022 08:20 1,5 C 1,1 C -1,7 C 78 % 1015,7 hPa 0,0 l/m 0 min 0 min 33 W/m 16,1 km/h (3 Bft) 100,00 %
02.04.2022 08:22 1,5 C 1,1 C -1,7 C 78 % 1015,7 hPa 0,0 l/m 0 min 0 min 34 W/m 16,1 km/h (3 Bft) 100,00 %
02.04.2022 08:24 1,5 C 1,1 C -1,7 C 78 % 1015,7 hPa 0,0 l/m 0 min 0 min 36 W/m 19,3 km/h (3 Bft) 100,00 %
02.04.2022 08:26 1,5 C 1,1 C -1,7 C 78 % 1015,7 hPa 0,0 l/m 0 min 0 min 37 W/m 19,3 km/h (3 Bft) 95,65 %
02.04.2022 08:28 1,5 C 1,1 C -1,7 C 78 % 1015,7 hPa 0,0 l/m 0 min 0 min 39 W/m 29,0 km/h (5 Bft) 97,87 %
02.04.2022 08:30 1,6 C 1,1 C -1,7 C 78 % 1015,8 hPa 0,0 l/m 0 min 0 min 41 W/m 22,5 km/h (4 Bft) 95,74 %
02.04.2022 08:32 1,6 C 1,1 C -1,7 C 78 % 1015,9 hPa 0,0 l/m 0 min 0 min 44 W/m 22,5 km/h (4 Bft) 52,27 %
02.04.2022 08:34 1,6 C 1,1 C -1,7 C 78 % 1015,9 hPa 0,0 l/m 0 min 0 min 48 W/m 25,7 km/h (4 Bft) 97,83 %
02.04.2022 08:36 1,6 C 1,1 C -1,7 C 78 % 1015,9 hPa 0,0 l/m 0 min 0 min 53 W/m 16,1 km/h (3 Bft) 97,87 %
02.04.2022 08:38 1,6 C 1,1 C -1,7 C 78 % 1015,9 hPa 0,0 l/m 0 min 0 min 57 W/m 9,7 km/h (2 Bft) 95,65 %
02.04.2022 08:40 1,6 C 1,1 C -1,7 C 78 % 1015,9 hPa 0,0 l/m 0 min 0 min 61 W/m 16,1 km/h (3 Bft) 97,87 %
02.04.2022 08:42 1,6 C 1,1 C -1,7 C 78 % 1015,9 hPa 0,0 l/m 0 min 0 min 66 W/m 22,5 km/h (4 Bft) 95,74 %
02.04.2022 08:44 1,7 C 1,7 C -1,7 C 78 % 1015,9 hPa 0,0 l/m 0 min 0 min 70 W/m 12,9 km/h (3 Bft) 97,87 %
02.04.2022 08:46 1,7 C 1,7 C -1,7 C 78 % 1015,9 hPa 0,0 l/m 0 min 0 min 74 W/m 32,2 km/h (5 Bft) 97,87 %
02.04.2022 08:48 1,7 C 1,7 C -1,7 C 78 % 1016,0 hPa 0,0 l/m 0 min 0 min 77 W/m 16,1 km/h (3 Bft) 95,74 %
02.04.2022 08:50 1,7 C 1,7 C -1,7 C 78 % 1016,0 hPa 0,0 l/m 0 min 0 min 82 W/m 19,3 km/h (3 Bft) 97,83 %
02.04.2022 08:52 1,7 C 1,7 C -1,7 C 77 % 1016,0 hPa 0,0 l/m 0 min 0 min 86 W/m 22,5 km/h (4 Bft) 97,87 %
02.04.2022 08:54 1,8 C 1,7 C -1,7 C 77 % 1016,1 hPa 0,0 l/m 0 min 0 min 90 W/m 22,5 km/h (4 Bft) 97,87 %
02.04.2022 08:56 1,8 C 1,7 C -1,7 C 77 % 1016,1 hPa 0,0 l/m 0 min 0 min 94 W/m 19,3 km/h (3 Bft) 95,74 %
02.04.2022 08:58 1,8 C 1,7 C -1,7 C 77 % 1016,1 hPa 0,0 l/m 0 min 0 min 98 W/m 22,5 km/h (4 Bft) 95,74 %
02.04.2022 09:00 1,8 C 1,7 C -1,1 C 78 % 1016,1 hPa 0,0 l/m 0 min 0 min 100 W/m 16,1 km/h (3 Bft) 97,87 %
02.04.2022 09:02 1,8 C 1,7 C -1,1 C 77 % 1016,1 hPa 0,0 l/m 0 min 0 min 104 W/m 22,5 km/h (4 Bft) 97,83 %
02.04.2022 09:04 1,9 C 2,2 C -1,1 C 77 % 1016,2 hPa 0,0 l/m 0 min 0 min 106 W/m 9,7 km/h (2 Bft) 95,74 %
02.04.2022 09:06 1,9 C 2,2 C -1,1 C 77 % 1016,2 hPa 0,0 l/m 0 min 0 min 109 W/m 22,5 km/h (4 Bft) 93,62 %
02.04.2022 09:08 1,9 C 2,2 C -1,1 C 77 % 1016,3 hPa 0,0 l/m 0 min 0 min 112 W/m 12,9 km/h (3 Bft) 96,00 %
02.04.2022 09:10 2,0 C 2,2 C -1,1 C 77 % 1016,3 hPa 0,0 l/m 0 min 0 min 116 W/m 25,7 km/h (4 Bft) 97,92 %
02.04.2022 09:12 2,0 C 2,2 C -1,1 C 77 % 1016,3 hPa 0,0 l/m 0 min 0 min 120 W/m 29,0 km/h (5 Bft) 95,74 %
02.04.2022 09:14 2,0 C 2,2 C -1,1 C 77 % 1016,3 hPa 0,0 l/m 0 min 0 min 121 W/m 25,7 km/h (4 Bft) 97,87 %
02.04.2022 09:16 2,1 C 2,2 C -1,1 C 76 % 1016,3 hPa 0,0 l/m 0 min 0 min 123 W/m 16,1 km/h (3 Bft) 94,29 %
02.04.2022 09:18 2,1 C 2,2 C -1,1 C 76 % 1016,3 hPa 0,0 l/m 0 min 0 min 125 W/m 22,5 km/h (4 Bft) 94,55 %
02.04.2022 09:20 2,1 C 2,2 C -1,1 C 76 % 1016,4 hPa 0,0 l/m 0 min 0 min 128 W/m 22,5 km/h (4 Bft) 97,87 %
02.04.2022 09:22 2,1 C 2,2 C -1,1 C 75 % 1016,4 hPa 0,0 l/m 0 min 0 min 133 W/m 25,7 km/h (4 Bft) 95,74 %
02.04.2022 09:24 2,1 C 2,2 C -1,1 C 76 % 1016,4 hPa 0,0 l/m 0 min 0 min 136 W/m 19,3 km/h (3 Bft) 95,65 %
02.04.2022 09:26 2,2 C 2,2 C -1,1 C 76 % 1016,4 hPa 0,0 l/m 0 min 0 min 139 W/m 19,3 km/h (3 Bft) 91,49 %
02.04.2022 09:28 2,2 C 2,2 C -1,1 C 75 % 1016,4 hPa 0,0 l/m 0 min 0 min 141 W/m 16,1 km/h (3 Bft) 95,74 %
02.04.2022 09:30 2,2 C 2,2 C -1,1 C 76 % 1016,4 hPa 0,0 l/m 0 min 0 min 143 W/m 19,3 km/h (3 Bft) 95,74 %
02.04.2022 09:32 2,3 C 2,8 C -1,1 C 75 % 1016,5 hPa 0,0 l/m 0 min 0 min 143 W/m 19,3 km/h (3 Bft) 95,74 %
02.04.2022 09:34 2,3 C 2,8 C -1,1 C 75 % 1016,5 hPa 0,0 l/m 0 min 0 min 147 W/m 19,3 km/h (3 Bft) 95,74 %
02.04.2022 09:36 2,3 C 2,8 C -0,6 C 76 % 1016,5 hPa 0,0 l/m 0 min 0 min 149 W/m 25,7 km/h (4 Bft) 95,65 %
02.04.2022 09:38 2,3 C 2,8 C -0,6 C 76 % 1016,5 hPa 0,0 l/m 0 min 0 min 151 W/m 22,5 km/h (4 Bft) 95,74 %
02.04.2022 09:40 2,4 C 2,8 C -0,6 C 76 % 1016,6 hPa 0,0 l/m 0 min 0 min 156 W/m 22,5 km/h (4 Bft) 95,74 %
02.04.2022 09:42 2,4 C 2,8 C -0,6 C 75 % 1016,6 hPa 0,0 l/m 0 min 0 min 158 W/m 22,5 km/h (4 Bft) 95,74 %
02.04.2022 09:44 2,4 C 2,8 C -0,6 C 75 % 1016,6 hPa 0,0 l/m 0 min 0 min 163 W/m 25,7 km/h (4 Bft) 95,74 %
02.04.2022 09:46 2,5 C 2,8 C -0,6 C 75 % 1016,7 hPa 0,0 l/m 0 min 0 min 166 W/m 35,4 km/h (5 Bft) 95,74 %
02.04.2022 09:48 2,5 C 2,8 C -0,6 C 75 % 1016,6 hPa 0,0 l/m 0 min 0 min 170 W/m 16,1 km/h (3 Bft) 95,65 %
02.04.2022 09:50 2,6 C 2,8 C -0,6 C 76 % 1016,8 hPa 0,0 l/m 0 min 0 min 170 W/m 16,1 km/h (3 Bft) 95,74 %
02.04.2022 09:52 2,6 C 3,3 C -0,6 C 76 % 1016,7 hPa 0,0 l/m 0 min 0 min 175 W/m 29,0 km/h (5 Bft) 97,87 %
02.04.2022 09:54 2,6 C 3,3 C -0,6 C 75 % 1016,7 hPa 0,0 l/m 0 min 0 min 179 W/m 22,5 km/h (4 Bft) 97,87 %
02.04.2022 09:56 2,6 C 3,3 C -0,6 C 75 % 1016,8 hPa 0,0 l/m 0 min 0 min 182 W/m 35,4 km/h (5 Bft) 93,62 %
02.04.2022 09:58 2,7 C 3,3 C -0,6 C 75 % 1016,8 hPa 0,0 l/m 0 min 0 min 186 W/m 19,3 km/h (3 Bft) 97,87 %
02.04.2022 10:00 2,7 C 3,3 C -0,6 C 75 % 1016,8 hPa 0,0 l/m 0 min 0 min 187 W/m 12,9 km/h (3 Bft) 97,83 %
02.04.2022 10:02 2,7 C 3,3 C -0,6 C 75 % 1016,8 hPa 0,0 l/m 0 min 0 min 188 W/m 12,9 km/h (3 Bft) 97,87 %
02.04.2022 10:04 2,8 C 3,3 C 0,0 C 76 % 1016,8 hPa 0,0 l/m 0 min 0 min 190 W/m 9,7 km/h (2 Bft) 97,87 %
02.04.2022 10:06 2,8 C 3,3 C 0,0 C 76 % 1016,9 hPa 0,0 l/m 0 min 0 min 196 W/m 25,7 km/h (4 Bft) 97,87 %
02.04.2022 10:08 2,8 C 3,3 C 0,0 C 75 % 1016,9 hPa 0,0 l/m 0 min 0 min 196 W/m 16,1 km/h (3 Bft) 100,00 %
02.04.2022 10:10 2,8 C 3,3 C -0,6 C 74 % 1016,9 hPa 0,0 l/m 0 min 0 min 194 W/m 22,5 km/h (4 Bft) 95,74 %
02.04.2022 10:12 2,8 C 3,3 C -0,6 C 73 % 1016,8 hPa 0,0 l/m 0 min 0 min 197 W/m 25,7 km/h (4 Bft) 100,00 %
02.04.2022 10:14 2,8 C 3,3 C -0,6 C 73 % 1016,9 hPa 0,0 l/m 0 min 0 min 206 W/m 22,5 km/h (4 Bft) 100,00 %
02.04.2022 10:16 2,8 C 3,3 C 0,0 C 73 % 1016,9 hPa 0,0 l/m 0 min 0 min 224 W/m 22,5 km/h (4 Bft) 97,87 %
02.04.2022 10:18 2,9 C 3,3 C 0,0 C 73 % 1016,9 hPa 0,0 l/m 0 min 0 min 220 W/m 25,7 km/h (4 Bft) 100,00 %
02.04.2022 10:20 2,9 C 3,3 C 0,0 C 72 % 1017,0 hPa 0,0 l/m 0 min 0 min 203 W/m 19,3 km/h (3 Bft) 100,00 %
02.04.2022 10:22 2,9 C 3,3 C 0,0 C 73 % 1017,0 hPa 0,0 l/m 0 min 0 min 207 W/m 19,3 km/h (3 Bft) 97,83 %
02.04.2022 10:24 2,9 C 3,3 C 0,0 C 72 % 1016,9 hPa 0,0 l/m 0 min 0 min 223 W/m 35,4 km/h (5 Bft) 100,00 %
02.04.2022 10:26 2,9 C 3,3 C 0,0 C 71 % 1017,0 hPa 0,0 l/m 0 min 0 min 184 W/m 19,3 km/h (3 Bft) 100,00 %
02.04.2022 10:28 3,1 C 3,3 C 0,0 C 73 % 1017,0 hPa 0,0 l/m 0 min 0 min 171 W/m 32,2 km/h (5 Bft) 100,00 %
02.04.2022 10:30 3,1 C 3,3 C 0,0 C 73 % 1017,1 hPa 0,0 l/m 0 min 0 min 192 W/m 22,5 km/h (4 Bft) 100,00 %
02.04.2022 10:32 3,1 C 3,3 C 0,0 C 73 % 1017,0 hPa 0,0 l/m 0 min 0 min 207 W/m 25,7 km/h (4 Bft) 100,00 %
02.04.2022 10:34 3,1 C 3,3 C 0,0 C 72 % 1017,0 hPa 0,0 l/m 0 min 0 min 202 W/m 19,3 km/h (3 Bft) 100,00 %
02.04.2022 10:36 3,1 C 3,3 C 0,0 C 72 % 1017,1 hPa 0,0 l/m 0 min 0 min 186 W/m 25,7 km/h (4 Bft) 100,00 %
02.04.2022 10:38 3,1 C 3,9 C 0,0 C 72 % 1017,1 hPa 0,0 l/m 0 min 0 min 219 W/m 25,7 km/h (4 Bft) 100,00 %
02.04.2022 10:40 3,1 C 3,9 C 0,0 C 72 % 1017,0 hPa 0,0 l/m 0 min 0 min 219 W/m 25,7 km/h (4 Bft) 100,00 %
02.04.2022 10:42 3,1 C 3,9 C 0,0 C 72 % 1017,1 hPa 0,0 l/m 0 min 0 min 247 W/m 32,2 km/h (5 Bft) 97,87 %
02.04.2022 10:44 3,2 C 3,9 C 0,0 C 72 % 1017,1 hPa 0,0 l/m 0 min 0 min 226 W/m 22,5 km/h (4 Bft) 100,00 %
02.04.2022 10:46 3,2 C 3,9 C 0,0 C 72 % 1017,2 hPa 0,0 l/m 0 min 0 min 214 W/m 25,7 km/h (4 Bft) 97,83 %
02.04.2022 10:48 3,2 C 3,9 C 0,0 C 72 % 1017,1 hPa 0,0 l/m 0 min 0 min 230 W/m 25,7 km/h (4 Bft) 95,74 %
02.04.2022 10:50 3,2 C 3,9 C 0,0 C 71 % 1017,1 hPa 0,0 l/m 0 min 0 min 259 W/m 25,7 km/h (4 Bft) 97,87 %
02.04.2022 10:52 3,3 C 3,9 C 0,0 C 71 % 1017,2 hPa 0,0 l/m 2 min 0 min 283 W/m 22,5 km/h (4 Bft) 97,87 %
02.04.2022 10:54 3,3 C 4,4 C 0,6 C 72 % 1017,2 hPa 0,0 l/m 0 min 0 min 261 W/m 12,9 km/h (3 Bft) 100,00 %
02.04.2022 10:56 3,4 C 4,4 C 0,6 C 72 % 1017,2 hPa 0,0 l/m 0 min 0 min 218 W/m 19,3 km/h (3 Bft) 100,00 %
02.04.2022 10:58 3,4 C 4,4 C 0,6 C 71 % 1017,3 hPa 0,0 l/m 0 min 0 min 232 W/m 12,9 km/h (3 Bft) 97,83 %
02.04.2022 11:00 3,4 C 4,4 C 0,6 C 71 % 1017,2 hPa 0,0 l/m 0 min 0 min 265 W/m 19,3 km/h (3 Bft) 100,00 %
02.04.2022 11:02 3,6 C 4,4 C 0,6 C 71 % 1017,3 hPa 0,0 l/m 0 min 0 min 232 W/m 22,5 km/h (4 Bft) 100,00 %
02.04.2022 11:04 3,6 C 4,4 C 0,6 C 71 % 1017,3 hPa 0,0 l/m 0 min 0 min 212 W/m 22,5 km/h (4 Bft) 100,00 %
02.04.2022 11:06 3,6 C 4,4 C 0,6 C 71 % 1017,3 hPa 0,0 l/m 0 min 0 min 190 W/m 19,3 km/h (3 Bft) 100,00 %
02.04.2022 11:08 3,6 C 4,4 C 0,6 C 71 % 1017,4 hPa 0,0 l/m 0 min 0 min 189 W/m 16,1 km/h (3 Bft) 100,00 %
02.04.2022 11:10 3,6 C 4,4 C 0,6 C 71 % 1017,4 hPa 0,0 l/m 0 min 0 min 215 W/m 16,1 km/h (3 Bft) 100,00 %
02.04.2022 11:12 3,6 C 4,4 C 0,6 C 71 % 1017,4 hPa 0,0 l/m 0 min 0 min 252 W/m 25,7 km/h (4 Bft) 95,74 %
02.04.2022 11:14 3,6 C 4,4 C 0,6 C 71 % 1017,5 hPa 0,0 l/m 0 min 0 min 253 W/m 22,5 km/h (4 Bft) 95,74 %
02.04.2022 11:16 3,7 C 4,4 C 0,6 C 71 % 1017,4 hPa 0,0 l/m 0 min 0 min 272 W/m 32,2 km/h (5 Bft) 95,74 %
02.04.2022 11:18 3,7 C 4,4 C 0,6 C 71 % 1017,4 hPa 0,0 l/m 0 min 0 min 262 W/m 22,5 km/h (4 Bft) 95,74 %
02.04.2022 11:20 3,7 C 4,4 C 0,6 C 69 % 1017,5 hPa 0,0 l/m 0 min 0 min 229 W/m 25,7 km/h (4 Bft) 97,87 %
02.04.2022 11:22 3,7 C 4,4 C 0,6 C 69 % 1017,4 hPa 0,0 l/m 0 min 0 min 209 W/m 29,0 km/h (5 Bft) 97,83 %
02.04.2022 11:24 3,7 C 4,4 C 0,6 C 70 % 1017,5 hPa 0,0 l/m 0 min 0 min 262 W/m 35,4 km/h (5 Bft) 95,74 %
02.04.2022 11:26 3,7 C 4,4 C 0,6 C 70 % 1017,5 hPa 0,0 l/m 0 min 0 min 234 W/m 22,5 km/h (4 Bft) 95,74 %
02.04.2022 11:28 3,7 C 4,4 C 0,6 C 71 % 1017,6 hPa 0,0 l/m 0 min 0 min 229 W/m 16,1 km/h (3 Bft) 93,62 %
02.04.2022 11:30 3,7 C 4,4 C 0,6 C 71 % 1017,6 hPa 0,0 l/m 0 min 0 min 208 W/m 16,1 km/h (3 Bft) 95,74 %
02.04.2022 11:32 3,7 C 4,4 C 0,6 C 71 % 1017,6 hPa 0,0 l/m 0 min 0 min 226 W/m 16,1 km/h (3 Bft) 93,48 %
02.04.2022 11:34 3,8 C 4,4 C 0,6 C 71 % 1017,6 hPa 0,0 l/m 0 min 0 min 212 W/m 19,3 km/h (3 Bft) 95,74 %
02.04.2022 11:36 3,7 C 4,4 C 0,6 C 71 % 1017,6 hPa 0,0 l/m 0 min 0 min 157 W/m 22,5 km/h (4 Bft) 95,74 %
02.04.2022 11:38 3,7 C 4,4 C 0,0 C 70 % 1017,6 hPa 0,0 l/m 0 min 0 min 162 W/m 16,1 km/h (3 Bft) 95,74 %
02.04.2022 11:40 3,7 C 4,4 C 0,6 C 70 % 1017,7 hPa 0,0 l/m 0 min 0 min 215 W/m 19,3 km/h (3 Bft) 93,62 %
02.04.2022 11:42 3,7 C 4,4 C 0,6 C 71 % 1017,7 hPa 0,0 l/m 0 min 0 min 232 W/m 16,1 km/h (3 Bft) 95,74 %
02.04.2022 11:44 3,7 C 4,4 C 0,6 C 71 % 1017,7 hPa 0,0 l/m 0 min 0 min 236 W/m 22,5 km/h (4 Bft) 95,65 %
02.04.2022 11:46 3,7 C 4,4 C 0,6 C 71 % 1017,6 hPa 0,0 l/m 0 min 0 min 275 W/m 35,4 km/h (5 Bft) 95,74 %
02.04.2022 11:48 3,7 C 4,4 C 0,6 C 71 % 1017,6 hPa 0,0 l/m 0 min 0 min 294 W/m 25,7 km/h (4 Bft) 93,62 %
02.04.2022 11:50 3,7 C 4,4 C 0,6 C 71 % 1017,7 hPa 0,0 l/m 2 min 0 min 323 W/m 22,5 km/h (4 Bft) 93,62 %
02.04.2022 11:52 3,7 C 4,4 C 0,6 C 72 % 1017,7 hPa 0,0 l/m 0 min 0 min 268 W/m 25,7 km/h (4 Bft) 95,74 %
02.04.2022 11:54 3,7 C 4,4 C 0,6 C 71 % 1017,6 hPa 0,0 l/m 0 min 0 min 251 W/m 25,7 km/h (4 Bft) 95,74 %
02.04.2022 11:56 3,7 C 4,4 C 0,6 C 72 % 1017,7 hPa 0,0 l/m 0 min 0 min 202 W/m 19,3 km/h (3 Bft) 97,83 %
02.04.2022 11:58 3,8 C 4,4 C 0,6 C 71 % 1017,7 hPa 0,0 l/m 0 min 0 min 219 W/m 35,4 km/h (5 Bft) 97,87 %
02.04.2022 12:00 3,8 C 4,4 C 0,6 C 71 % 1017,8 hPa 0,0 l/m 0 min 0 min 261 W/m 19,3 km/h (3 Bft) 100,00 %
02.04.2022 12:02 3,8 C 4,4 C 1,1 C 71 % 1017,7 hPa 0,0 l/m 0 min 0 min 304 W/m 29,0 km/h (5 Bft) 95,74 %
02.04.2022 12:04 3,9 C 5,0 C 1,1 C 71 % 1017,8 hPa 0,0 l/m 2 min 0 min 382 W/m 22,5 km/h (4 Bft) 97,87 %
02.04.2022 12:08 4,1 C 5,6 C 1,7 C 70 % 1017,9 hPa 0,0 l/m 4 min 0 min 383 W/m 35,4 km/h (5 Bft) 100,00 %
02.04.2022 12:10 4,1 C 5,6 C 1,7 C 70 % 1017,8 hPa 0,0 l/m 0 min 0 min 270 W/m 22,5 km/h (4 Bft) 97,87 %
02.04.2022 12:12 4,2 C 5,0 C 1,1 C 70 % 1017,8 hPa 0,0 l/m 0 min 0 min 242 W/m 19,3 km/h (3 Bft) 97,87 %
02.04.2022 12:14 4,1 C 5,0 C 1,1 C 71 % 1017,9 hPa 0,0 l/m 0 min 0 min 210 W/m 25,7 km/h (4 Bft) 100,00 %
02.04.2022 12:16 4,1 C 4,4 C 0,6 C 71 % 1017,9 hPa 0,0 l/m 0 min 0 min 223 W/m 16,1 km/h (3 Bft) 100,00 %
02.04.2022 12:18 4,0 C 4,4 C 0,6 C 71 % 1017,9 hPa 0,0 l/m 0 min 0 min 224 W/m 19,3 km/h (3 Bft) 100,00 %
02.04.2022 12:20 4,0 C 4,4 C 0,6 C 72 % 1017,9 hPa 0,0 l/m 0 min 0 min 223 W/m 16,1 km/h (3 Bft) 97,83 %
02.04.2022 12:22 4,0 C 4,4 C 0,6 C 72 % 1017,9 hPa 0,0 l/m 0 min 0 min 182 W/m 22,5 km/h (4 Bft) 100,00 %
02.04.2022 12:24 4,0 C 3,9 C 0,6 C 72 % 1017,9 hPa 0,0 l/m 0 min 0 min 137 W/m 22,5 km/h (4 Bft) 100,00 %
02.04.2022 12:26 3,9 C 3,9 C 0,0 C 71 % 1018,0 hPa 0,0 l/m 0 min 0 min 109 W/m 25,7 km/h (4 Bft) 97,87 %
02.04.2022 12:28 3,7 C 3,3 C 0,0 C 71 % 1017,9 hPa 0,0 l/m 0 min 0 min 109 W/m 25,7 km/h (4 Bft) 97,87 %
02.04.2022 12:30 3,7 C 3,3 C 0,0 C 71 % 1017,9 hPa 0,0 l/m 0 min 0 min 114 W/m 19,3 km/h (3 Bft) 97,87 %
02.04.2022 12:32 3,6 C 3,3 C 0,0 C 72 % 1018,0 hPa 0,0 l/m 0 min 0 min 120 W/m 35,4 km/h (5 Bft) 97,83 %
02.04.2022 12:34 3,6 C 3,3 C 0,0 C 72 % 1018,0 hPa 0,0 l/m 0 min 0 min 158 W/m 35,4 km/h (5 Bft) 51,16 %
02.04.2022 12:36 3,6 C 3,9 C 0,0 C 73 % 1018,0 hPa 0,0 l/m 0 min 0 min 248 W/m 32,2 km/h (5 Bft) 97,87 %
02.04.2022 12:38 3,6 C 3,9 C 0,6 C 73 % 1017,9 hPa 0,0 l/m 0 min 0 min 250 W/m 22,5 km/h (4 Bft) 95,74 %
02.04.2022 12:40 3,6 C 4,4 C 0,6 C 73 % 1018,0 hPa 0,0 l/m 0 min 0 min 252 W/m 19,3 km/h (3 Bft) 97,87 %
02.04.2022 12:42 3,7 C 4,4 C 0,6 C 74 % 1018,0 hPa 0,0 l/m 0 min 0 min 241 W/m 16,1 km/h (3 Bft) 95,74 %
02.04.2022 12:44 3,7 C 4,4 C 0,6 C 73 % 1018,0 hPa 0,0 l/m 0 min 0 min 185 W/m 22,5 km/h (4 Bft) 97,83 %
02.04.2022 12:46 3,8 C 4,4 C 0,6 C 73 % 1018,0 hPa 0,0 l/m 0 min 0 min 140 W/m 16,1 km/h (3 Bft) 97,87 %
02.04.2022 12:48 3,8 C 3,9 C 0,6 C 74 % 1018,0 hPa 0,0 l/m 0 min 0 min 117 W/m 19,3 km/h (3 Bft) 95,74 %
02.04.2022 12:50 3,7 C 3,9 C 0,0 C 73 % 1018,0 hPa 0,0 l/m 0 min 0 min 124 W/m 22,5 km/h (4 Bft) 97,87 %
02.04.2022 12:52 3,7 C 3,9 C 0,0 C 74 % 1018,0 hPa 0,0 l/m 0 min 0 min 179 W/m 12,9 km/h (3 Bft) 95,74 %
02.04.2022 12:54 3,7 C 3,9 C 0,6 C 75 % 1018,0 hPa 0,0 l/m 0 min 0 min 258 W/m 16,1 km/h (3 Bft) 95,74 %
02.04.2022 12:56 3,7 C 4,4 C 1,1 C 75 % 1018,0 hPa 0,0 l/m 0 min 0 min 328 W/m 12,9 km/h (3 Bft) 97,83 %
02.04.2022 12:58 3,8 C 5,0 C 1,1 C 76 % 1018,1 hPa 0,0 l/m 0 min 0 min 330 W/m 12,9 km/h (3 Bft) 97,87 %
02.04.2022 13:00 3,9 C 5,6 C 1,1 C 76 % 1018,1 hPa 0,0 l/m 0 min 0 min 278 W/m 19,3 km/h (3 Bft) 97,87 %
02.04.2022 13:02 4,0 C 5,0 C 1,1 C 75 % 1018,1 hPa 0,0 l/m 0 min 0 min 227 W/m 32,2 km/h (5 Bft) 95,74 %
02.04.2022 13:04 3,9 C 4,4 C 0,6 C 74 % 1018,2 hPa 0,0 l/m 0 min 0 min 180 W/m 25,7 km/h (4 Bft) 97,87 %
02.04.2022 13:06 3,8 C 4,4 C 0,0 C 74 % 1018,1 hPa 0,0 l/m 0 min 0 min 162 W/m 25,7 km/h (4 Bft) 97,87 %
02.04.2022 13:08 3,8 C 3,9 C 0,0 C 75 % 1018,2 hPa 0,0 l/m 0 min 0 min 161 W/m 22,5 km/h (4 Bft) 97,83 %
02.04.2022 13:10 3,7 C 3,9 C 0,0 C 75 % 1018,2 hPa 0,0 l/m 0 min 0 min 184 W/m 16,1 km/h (3 Bft) 97,87 %
02.04.2022 13:12 3,7 C 3,9 C 0,0 C 75 % 1018,2 hPa 0,0 l/m 0 min 0 min 231 W/m 12,9 km/h (3 Bft) 97,87 %
02.04.2022 13:14 3,7 C 3,9 C 0,6 C 75 % 1018,2 hPa 0,0 l/m 0 min 0 min 250 W/m 19,3 km/h (3 Bft) 93,62 %
02.04.2022 13:16 3,7 C 3,9 C 0,6 C 76 % 1018,2 hPa 0,0 l/m 0 min 0 min 254 W/m 22,5 km/h (4 Bft) 97,87 %
02.04.2022 13:18 3,7 C 4,4 C 0,6 C 76 % 1018,2 hPa 0,0 l/m 0 min 0 min 218 W/m 12,9 km/h (3 Bft) 100,00 %
02.04.2022 13:20 3,7 C 4,4 C 0,6 C 76 % 1018,2 hPa 0,0 l/m 0 min 0 min 142 W/m 16,1 km/h (3 Bft) 97,87 %
02.04.2022 13:22 3,7 C 3,9 C 0,0 C 76 % 1018,3 hPa 0,0 l/m 0 min 0 min 111 W/m 16,1 km/h (3 Bft) 100,00 %
02.04.2022 13:24 3,7 C 3,9 C 0,0 C 77 % 1018,3 hPa 0,0 l/m 0 min 0 min 138 W/m 22,5 km/h (4 Bft) 100,00 %
02.04.2022 13:26 3,7 C 3,9 C 0,0 C 77 % 1018,3 hPa 0,0 l/m 0 min 0 min 224 W/m 12,9 km/h (3 Bft) 100,00 %
02.04.2022 13:28 3,7 C 4,4 C 0,6 C 78 % 1018,3 hPa 0,0 l/m 0 min 0 min 284 W/m 12,9 km/h (3 Bft) 97,87 %
02.04.2022 13:30 3,7 C 4,4 C 0,6 C 78 % 1018,4 hPa 0,0 l/m 0 min 0 min 339 W/m 25,7 km/h (4 Bft) 97,83 %
02.04.2022 13:32 3,7 C 4,4 C 0,6 C 78 % 1018,3 hPa 0,0 l/m 0 min 0 min 300 W/m 22,5 km/h (4 Bft) 97,87 %
02.04.2022 13:34 3,7 C 4,4 C 0,6 C 78 % 1018,4 hPa 0,0 l/m 0 min 0 min 235 W/m 19,3 km/h (3 Bft) 95,74 %
02.04.2022 13:36 3,8 C 4,4 C 0,6 C 78 % 1018,4 hPa 0,0 l/m 0 min 0 min 204 W/m 19,3 km/h (3 Bft) 100,00 %
02.04.2022 13:38 3,7 C 3,9 C 0,6 C 78 % 1018,4 hPa 0,0 l/m 0 min 0 min 156 W/m 22,5 km/h (4 Bft) 97,87 %
02.04.2022 13:40 3,7 C 3,9 C 0,0 C 78 % 1018,4 hPa 0,0 l/m 0 min 0 min 125 W/m 22,5 km/h (4 Bft) 97,87 %
02.04.2022 13:42 3,6 C 3,3 C 0,0 C 79 % 1018,5 hPa 0,0 l/m 0 min 0 min 123 W/m 16,1 km/h (3 Bft) 97,83 %
02.04.2022 13:44 3,6 C 3,3 C 0,0 C 79 % 1018,5 hPa 0,0 l/m 0 min 0 min 138 W/m 12,9 km/h (3 Bft) 97,87 %
02.04.2022 13:46 3,5 C 3,3 C 0,0 C 80 % 1018,5 hPa 0,0 l/m 0 min 0 min 145 W/m 22,5 km/h (4 Bft) 97,96 %
02.04.2022 13:48 3,4 C 3,3 C -0,6 C 81 % 1018,5 hPa 0,0 l/m 0 min 0 min 181 W/m 22,5 km/h (4 Bft) 97,87 %
02.04.2022 13:50 3,4 C 3,3 C -0,6 C 81 % 1018,5 hPa 0,0 l/m 0 min 0 min 238 W/m 12,9 km/h (3 Bft) 97,87 %
02.04.2022 13:52 3,4 C 3,9 C 0,0 C 82 % 1018,5 hPa 0,0 l/m 0 min 0 min 287 W/m 6,4 km/h (2 Bft) 95,65 %
02.04.2022 13:54 3,3 C 4,4 C 0,6 C 83 % 1018,5 hPa 0,0 l/m 2 min 0 min 357 W/m 16,1 km/h (3 Bft) 97,96 %
02.04.2022 13:56 3,4 C 5,0 C 0,6 C 83 % 1018,4 hPa 0,0 l/m 2 min 0 min 446 W/m 12,9 km/h (3 Bft) 93,62 %
02.04.2022 13:58 3,5 C 5,6 C 1,1 C 83 % 1018,5 hPa 0,0 l/m 2 min 0 min 494 W/m 16,1 km/h (3 Bft) 93,62 %
02.04.2022 14:00 3,6 C 6,1 C 1,1 C 83 % 1018,5 hPa 0,0 l/m 2 min 0 min 488 W/m 16,1 km/h (3 Bft) 97,87 %
02.04.2022 14:02 3,8 C 6,7 C 1,1 C 83 % 1018,4 hPa 0,0 l/m 2 min 0 min 408 W/m 12,9 km/h (3 Bft) 95,74 %
02.04.2022 14:04 3,9 C 6,1 C 1,1 C 82 % 1018,4 hPa 0,0 l/m 0 min 0 min 307 W/m 25,7 km/h (4 Bft) 97,83 %
02.04.2022 14:06 3,9 C 5,6 C 1,1 C 81 % 1018,4 hPa 0,0 l/m 0 min 0 min 214 W/m 25,7 km/h (4 Bft) 95,74 %
02.04.2022 14:08 3,9 C 5,0 C 1,1 C 81 % 1018,5 hPa 0,0 l/m 0 min 0 min 192 W/m 25,7 km/h (4 Bft) 97,87 %
02.04.2022 14:10 3,8 C 4,4 C 0,6 C 80 % 1018,5 hPa 0,0 l/m 0 min 0 min 210 W/m 22,5 km/h (4 Bft) 95,74 %
02.04.2022 14:12 3,8 C 4,4 C 0,6 C 80 % 1018,5 hPa 0,0 l/m 0 min 0 min 232 W/m 25,7 km/h (4 Bft) 97,87 %
02.04.2022 14:14 3,8 C 4,4 C 0,6 C 81 % 1018,4 hPa 0,0 l/m 0 min 0 min 248 W/m 16,1 km/h (3 Bft) 97,87 %
02.04.2022 14:16 3,8 C 4,4 C 0,6 C 81 % 1018,4 hPa 0,0 l/m 0 min 0 min 276 W/m 12,9 km/h (3 Bft) 97,83 %
02.04.2022 14:18 3,8 C 5,0 C 1,1 C 81 % 1018,5 hPa 0,0 l/m 0 min 0 min 325 W/m 3,2 km/h (1 Bft) 97,87 %
02.04.2022 14:20 3,8 C 5,6 C 1,1 C 82 % 1018,5 hPa 0,0 l/m 2 min 0 min 388 W/m 6,4 km/h (2 Bft) 95,74 %
02.04.2022 14:22 4,0 C 6,1 C 1,1 C 82 % 1018,5 hPa 0,0 l/m 2 min 0 min 386 W/m 12,9 km/h (3 Bft) 97,87 %
02.04.2022 14:24 4,1 C 6,1 C 1,7 C 82 % 1018,5 hPa 0,0 l/m 2 min 0 min 340 W/m 16,1 km/h (3 Bft) 93,62 %
02.04.2022 14:26 4,1 C 6,1 C 1,7 C 82 % 1018,5 hPa 0,0 l/m 0 min 0 min 308 W/m 16,1 km/h (3 Bft) 97,87 %
02.04.2022 14:28 4,2 C 5,6 C 1,7 C 81 % 1018,5 hPa 0,0 l/m 0 min 0 min 272 W/m 22,5 km/h (4 Bft) 97,83 %
02.04.2022 14:30 4,2 C 5,6 C 1,1 C 80 % 1018,5 hPa 0,0 l/m 0 min 0 min 204 W/m 22,5 km/h (4 Bft) 97,87 %
02.04.2022 14:32 4,2 C 5,0 C 1,1 C 80 % 1018,4 hPa 0,0 l/m 0 min 0 min 164 W/m 16,1 km/h (3 Bft) 97,87 %
02.04.2022 14:34 4,2 C 5,0 C 1,1 C 79 % 1018,4 hPa 0,0 l/m 0 min 0 min 158 W/m 6,4 km/h (2 Bft) 97,87 %
02.04.2022 14:36 4,2 C 4,4 C 1,1 C 78 % 1018,4 hPa 0,0 l/m 0 min 0 min 175 W/m 19,3 km/h (3 Bft) 97,87 %
02.04.2022 14:38 4,2 C 4,4 C 1,1 C 78 % 1018,5 hPa 0,0 l/m 0 min 0 min 192 W/m 3,2 km/h (1 Bft) 97,87 %
02.04.2022 14:40 4,2 C 5,0 C 1,1 C 78 % 1018,5 hPa 0,0 l/m 0 min 0 min 190 W/m 0,0 km/h (0 Bft) 97,83 %
02.04.2022 14:42 4,2 C 5,0 C 1,1 C 78 % 1018,5 hPa 0,0 l/m 0 min 0 min 186 W/m 16,1 km/h (3 Bft) 95,74 %
02.04.2022 14:44 4,2 C 5,0 C 1,1 C 77 % 1018,5 hPa 0,0 l/m 0 min 0 min 168 W/m 12,9 km/h (3 Bft) 100,00 %
02.04.2022 14:46 4,2 C 4,4 C 0,6 C 76 % 1018,6 hPa 0,0 l/m 0 min 0 min 126 W/m 12,9 km/h (3 Bft) 100,00 %
02.04.2022 14:48 4,1 C 4,4 C 0,6 C 76 % 1018,6 hPa 0,0 l/m 0 min 0 min 96 W/m 22,5 km/h (4 Bft) 97,87 %
02.04.2022 14:50 4,1 C 3,9 C 0,6 C 76 % 1018,6 hPa 0,0 l/m 0 min 0 min 108 W/m 25,7 km/h (4 Bft) 100,00 %
02.04.2022 14:52 4,0 C 3,9 C 0,6 C 76 % 1018,6 hPa 0,0 l/m 0 min 0 min 145 W/m 19,3 km/h (3 Bft) 95,65 %
02.04.2022 14:54 4,0 C 3,9 C 0,6 C 77 % 1018,6 hPa 0,0 l/m 0 min 0 min 168 W/m 16,1 km/h (3 Bft) 95,74 %
02.04.2022 14:56 4,0 C 3,9 C 0,6 C 77 % 1018,6 hPa 0,0 l/m 0 min 0 min 181 W/m 12,9 km/h (3 Bft) 100,00 %
02.04.2022 14:58 4,0 C 4,4 C 0,6 C 79 % 1018,6 hPa 0,0 l/m 0 min 0 min 182 W/m 12,9 km/h (3 Bft) 100,00 %
02.04.2022 15:00 3,9 C 4,4 C 0,6 C 79 % 1018,7 hPa 0,0 l/m 0 min 0 min 190 W/m 16,1 km/h (3 Bft) 100,00 %
02.04.2022 15:02 3,9 C 4,4 C 0,6 C 79 % 1018,6 hPa 0,0 l/m 0 min 0 min 199 W/m 12,9 km/h (3 Bft) 97,83 %
02.04.2022 15:04 3,9 C 4,4 C 0,6 C 79 % 1018,6 hPa 0,0 l/m 0 min 0 min 222 W/m 12,9 km/h (3 Bft) 95,74 %
02.04.2022 15:06 3,9 C 5,0 C 0,6 C 79 % 1018,7 hPa 0,0 l/m 0 min 0 min 270 W/m 9,7 km/h (2 Bft) 100,00 %
02.04.2022 15:08 4,0 C 5,6 C 1,1 C 80 % 1018,7 hPa 0,0 l/m 0 min 0 min 281 W/m 6,4 km/h (2 Bft) 100,00 %
02.04.2022 15:10 4,1 C 5,6 C 1,1 C 80 % 1018,7 hPa 0,0 l/m 0 min 0 min 285 W/m 12,9 km/h (3 Bft) 97,87 %
02.04.2022 15:12 4,1 C 5,6 C 1,1 C 80 % 1018,6 hPa 0,0 l/m 0 min 0 min 303 W/m 12,9 km/h (3 Bft) 97,87 %
02.04.2022 15:14 4,2 C 6,1 C 1,1 C 80 % 1018,6 hPa 0,0 l/m 0 min 0 min 301 W/m 9,7 km/h (2 Bft) 100,00 %
02.04.2022 15:16 4,2 C 6,1 C 1,1 C 80 % 1018,6 hPa 0,0 l/m 0 min 0 min 269 W/m 6,4 km/h (2 Bft) 97,87 %
02.04.2022 15:18 4,3 C 6,1 C 1,7 C 80 % 1018,5 hPa 0,0 l/m 0 min 0 min 269 W/m 6,4 km/h (2 Bft) 100,00 %
02.04.2022 15:20 4,3 C 6,1 C 1,7 C 80 % 1018,5 hPa 0,0 l/m 0 min 0 min 288 W/m 6,4 km/h (2 Bft) 100,00 %
02.04.2022 15:22 4,3 C 6,1 C 1,7 C 80 % 1018,5 hPa 0,0 l/m 2 min 0 min 314 W/m 16,1 km/h (3 Bft) 97,87 %
02.04.2022 15:24 4,4 C 6,7 C 1,7 C 80 % 1018,5 hPa 0,0 l/m 2 min 0 min 343 W/m 9,7 km/h (2 Bft) 100,00 %
02.04.2022 15:26 4,5 C 6,7 C 1,7 C 78 % 1018,5 hPa 0,0 l/m 2 min 0 min 362 W/m 9,7 km/h (2 Bft) 95,65 %
02.04.2022 15:28 4,6 C 7,2 C 1,7 C 78 % 1018,5 hPa 0,0 l/m 2 min 0 min 357 W/m 16,1 km/h (3 Bft) 97,87 %
02.04.2022 15:30 4,6 C 7,2 C 1,7 C 77 % 1018,5 hPa 0,0 l/m 2 min 0 min 387 W/m 12,9 km/h (3 Bft) 97,87 %
02.04.2022 15:32 4,7 C 7,2 C 2,2 C 76 % 1018,5 hPa 0,0 l/m 2 min 0 min 413 W/m 12,9 km/h (3 Bft) 89,36 %
02.04.2022 15:34 4,8 C 7,8 C 2,2 C 75 % 1018,4 hPa 0,0 l/m 2 min 0 min 407 W/m 9,7 km/h (2 Bft) 95,74 %
02.04.2022 15:36 4,9 C 7,8 C 2,2 C 75 % 1018,4 hPa 0,0 l/m 2 min 0 min 420 W/m 12,9 km/h (3 Bft) 95,74 %
02.04.2022 15:38 5,1 C 8,3 C 2,2 C 75 % 1018,5 hPa 0,0 l/m 2 min 0 min 426 W/m 16,1 km/h (3 Bft) 93,48 %
02.04.2022 15:40 5,1 C 8,3 C 2,8 C 74 % 1018,5 hPa 0,0 l/m 2 min 0 min 346 W/m 9,7 km/h (2 Bft) 95,74 %
02.04.2022 15:42 5,2 C 7,8 C 2,2 C 74 % 1018,5 hPa 0,0 l/m 0 min 0 min 238 W/m 16,1 km/h (3 Bft) 95,74 %
02.04.2022 15:44 5,3 C 7,2 C 2,2 C 73 % 1018,5 hPa 0,0 l/m 0 min 0 min 197 W/m 16,1 km/h (3 Bft) 93,62 %
02.04.2022 15:46 5,2 C 6,1 C 2,2 C 71 % 1018,5 hPa 0,0 l/m 0 min 0 min 193 W/m 22,5 km/h (4 Bft) 95,74 %
02.04.2022 15:48 5,2 C 6,1 C 1,7 C 70 % 1018,5 hPa 0,0 l/m 0 min 0 min 211 W/m 22,5 km/h (4 Bft) 95,65 %
02.04.2022 15:50 5,2 C 6,1 C 1,7 C 70 % 1018,5 hPa 0,0 l/m 0 min 0 min 222 W/m 16,1 km/h (3 Bft) 95,74 %
02.04.2022 15:52 5,2 C 6,1 C 1,7 C 70 % 1018,4 hPa 0,0 l/m 0 min 0 min 229 W/m 9,7 km/h (2 Bft) 95,74 %
02.04.2022 15:54 5,2 C 6,1 C 1,7 C 71 % 1018,4 hPa 0,0 l/m 0 min 0 min 234 W/m 9,7 km/h (2 Bft) 95,74 %
02.04.2022 15:56 5,2 C 6,1 C 1,7 C 70 % 1018,5 hPa 0,0 l/m 0 min 0 min 221 W/m 9,7 km/h (2 Bft) 95,74 %
02.04.2022 15:58 5,2 C 6,1 C 1,7 C 70 % 1018,5 hPa 0,0 l/m 0 min 0 min 209 W/m 9,7 km/h (2 Bft) 93,62 %
02.04.2022 16:00 5,2 C 6,1 C 1,7 C 70 % 1018,4 hPa 0,0 l/m 0 min 0 min 204 W/m 12,9 km/h (3 Bft) 95,65 %
02.04.2022 16:02 5,2 C 6,1 C 1,7 C 69 % 1018,4 hPa 0,0 l/m 0 min 0 min 206 W/m 6,4 km/h (2 Bft) 95,74 %
02.04.2022 16:04 5,2 C 6,1 C 1,7 C 70 % 1018,4 hPa 0,0 l/m 0 min 0 min 234 W/m 12,9 km/h (3 Bft) 95,74 %
02.04.2022 16:06 5,2 C 7,2 C 2,2 C 70 % 1018,3 hPa 0,0 l/m 2 min 0 min 319 W/m 6,4 km/h (2 Bft) 93,62 %
02.04.2022 16:08 5,3 C 8,9 C 2,2 C 71 % 1018,3 hPa 0,0 l/m 2 min 0 min 392 W/m 16,1 km/h (3 Bft) 95,74 %
02.04.2022 16:10 5,4 C 9,4 C 2,2 C 70 % 1018,4 hPa 0,0 l/m 2 min 0 min 368 W/m 9,7 km/h (2 Bft) 95,74 %
02.04.2022 16:12 5,4 C 10,0 C 2,2 C 70 % 1018,3 hPa 0,0 l/m 2 min 0 min 426 W/m 9,7 km/h (2 Bft) 95,65 %
02.04.2022 16:14 5,6 C 10,6 C 2,2 C 69 % 1018,3 hPa 0,0 l/m 2 min 0 min 415 W/m 9,7 km/h (2 Bft) 95,74 %
02.04.2022 16:16 5,6 C 10,0 C 2,2 C 68 % 1018,3 hPa 0,0 l/m 0 min 0 min 261 W/m 9,7 km/h (2 Bft) 93,62 %
02.04.2022 16:18 5,7 C 10,6 C 2,2 C 68 % 1018,3 hPa 0,0 l/m 2 min 0 min 366 W/m 16,1 km/h (3 Bft) 95,74 %
02.04.2022 16:20 5,8 C 11,7 C 2,8 C 68 % 1018,2 hPa 0,0 l/m 2 min 0 min 571 W/m 9,7 km/h (2 Bft) 100,00 %
02.04.2022 16:22 5,9 C 11,1 C 2,8 C 68 % 1018,3 hPa 0,0 l/m 2 min 0 min 370 W/m 9,7 km/h (2 Bft) 100,00 %
02.04.2022 16:24 6,1 C 11,1 C 2,8 C 68 % 1018,2 hPa 0,0 l/m 2 min 0 min 393 W/m 6,4 km/h (2 Bft) 97,83 %
02.04.2022 16:26 6,2 C 10,6 C 3,3 C 67 % 1018,2 hPa 0,0 l/m 2 min 0 min 379 W/m 9,7 km/h (2 Bft) 97,87 %
02.04.2022 16:28 6,2 C 10,0 C 3,3 C 66 % 1018,2 hPa 0,0 l/m 2 min 0 min 388 W/m 12,9 km/h (3 Bft) 100,00 %
02.04.2022 16:30 6,3 C 10,0 C 3,3 C 64 % 1018,2 hPa 0,0 l/m 2 min 0 min 393 W/m 9,7 km/h (2 Bft) 100,00 %
02.04.2022 16:32 6,3 C 10,0 C 3,3 C 65 % 1018,2 hPa 0,0 l/m 2 min 0 min 350 W/m 16,1 km/h (3 Bft) 97,87 %
02.04.2022 16:34 6,3 C 8,9 C 2,8 C 64 % 1018,2 hPa 0,0 l/m 0 min 0 min 221 W/m 16,1 km/h (3 Bft) 100,00 %
02.04.2022 16:36 6,4 C 8,3 C 2,8 C 64 % 1018,2 hPa 0,0 l/m 0 min 0 min 172 W/m 6,4 km/h (2 Bft) 97,83 %
02.04.2022 16:38 6,3 C 7,8 C 2,8 C 63 % 1018,2 hPa 0,0 l/m 0 min 0 min 159 W/m 9,7 km/h (2 Bft) 100,00 %
02.04.2022 16:40 6,3 C 7,2 C 2,8 C 61 % 1018,1 hPa 0,0 l/m 0 min 0 min 190 W/m 9,7 km/h (2 Bft) 100,00 %
02.04.2022 16:42 6,3 C 7,2 C 2,8 C 61 % 1018,2 hPa 0,0 l/m 0 min 0 min 208 W/m 6,4 km/h (2 Bft) 95,74 %
02.04.2022 16:44 6,2 C 7,8 C 2,8 C 61 % 1018,1 hPa 0,0 l/m 0 min 0 min 210 W/m 6,4 km/h (2 Bft) 97,87 %
02.04.2022 16:46 6,3 C 9,4 C 2,8 C 62 % 1018,2 hPa 0,0 l/m 2 min 0 min 444 W/m 12,9 km/h (3 Bft) 97,83 %
02.04.2022 16:48 6,4 C 11,1 C 3,3 C 63 % 1018,2 hPa 0,0 l/m 2 min 0 min 480 W/m 9,7 km/h (2 Bft) 97,87 %
02.04.2022 16:50 6,5 C 12,2 C 3,3 C 63 % 1018,2 hPa 0,0 l/m 2 min 0 min 471 W/m 12,9 km/h (3 Bft) 97,87 %
02.04.2022 16:52 6,6 C 12,8 C 3,9 C 63 % 1018,1 hPa 0,0 l/m 2 min 0 min 447 W/m 9,7 km/h (2 Bft) 97,87 %
02.04.2022 16:54 6,7 C 12,2 C 3,9 C 64 % 1018,1 hPa 0,0 l/m 2 min 0 min 411 W/m 12,9 km/h (3 Bft) 97,87 %
02.04.2022 16:56 6,8 C 11,7 C 3,9 C 62 % 1018,1 hPa 0,0 l/m 2 min 0 min 286 W/m 16,1 km/h (3 Bft) 97,87 %
02.04.2022 16:58 6,9 C 10,6 C 3,3 C 61 % 1018,1 hPa 0,0 l/m 2 min 0 min 273 W/m 9,7 km/h (2 Bft) 97,83 %
02.04.2022 17:00 6,9 C 10,6 C 3,3 C 60 % 1018,1 hPa 0,0 l/m 2 min 0 min 304 W/m 9,7 km/h (2 Bft) 95,74 %
02.04.2022 17:02 6,8 C 10,6 C 3,3 C 58 % 1018,0 hPa 0,0 l/m 2 min 0 min 276 W/m 9,7 km/h (2 Bft) 97,87 %
02.04.2022 17:04 6,8 C 10,0 C 3,3 C 59 % 1018,1 hPa 0,0 l/m 0 min 0 min 185 W/m 12,9 km/h (3 Bft) 97,06 %
02.04.2022 17:09 6,8 C 7,8 C 2,8 C 58 % 1018,1 hPa 0,0 l/m 0 min 0 min 129 W/m 19,3 km/h (3 Bft) 96,77 %
02.04.2022 17:10 6,7 C 7,2 C 2,8 C 56 % 1018,1 hPa 0,0 l/m 0 min 0 min 108 W/m 16,1 km/h (3 Bft) 100,00 %
02.04.2022 17:12 6,7 C 7,2 C 2,8 C 57 % 1018,2 hPa 0,0 l/m 0 min 0 min 107 W/m 12,9 km/h (3 Bft) 97,87 %
02.04.2022 17:14 6,6 C 6,7 C 2,8 C 57 % 1018,2 hPa 0,0 l/m 0 min 0 min 112 W/m 16,1 km/h (3 Bft) 97,87 %
02.04.2022 17:16 6,5 C 6,1 C 2,2 C 56 % 1018,2 hPa 0,0 l/m 0 min 0 min 113 W/m 22,5 km/h (4 Bft) 97,87 %
02.04.2022 17:18 6,4 C 6,1 C 2,2 C 55 % 1018,3 hPa 0,0 l/m 0 min 0 min 109 W/m 25,7 km/h (4 Bft) 93,62 %
02.04.2022 17:20 6,3 C 6,1 C 2,2 C 55 % 1018,3 hPa 0,0 l/m 0 min 0 min 113 W/m 22,5 km/h (4 Bft) 95,74 %
02.04.2022 17:22 6,2 C 6,1 C 2,2 C 55 % 1018,3 hPa 0,0 l/m 0 min 0 min 139 W/m 25,7 km/h (4 Bft) 97,83 %
02.04.2022 17:24 6,2 C 6,1 C 2,2 C 55 % 1018,4 hPa 0,0 l/m 0 min 0 min 173 W/m 19,3 km/h (3 Bft) 97,87 %
02.04.2022 17:26 6,2 C 6,7 C 2,2 C 55 % 1018,4 hPa 0,0 l/m 0 min 0 min 193 W/m 16,1 km/h (3 Bft) 97,87 %
02.04.2022 17:28 6,1 C 6,7 C 2,2 C 55 % 1018,4 hPa 0,0 l/m 0 min 0 min 198 W/m 16,1 km/h (3 Bft) 97,87 %
02.04.2022 17:30 6,2 C 7,8 C 2,8 C 56 % 1018,4 hPa 0,0 l/m 2 min 0 min 264 W/m 25,7 km/h (4 Bft) 97,87 %
02.04.2022 17:32 6,2 C 8,3 C 2,8 C 55 % 1018,3 hPa 0,0 l/m 2 min 0 min 279 W/m 19,3 km/h (3 Bft) 100,00 %
02.04.2022 17:34 6,3 C 8,3 C 2,8 C 54 % 1018,4 hPa 0,0 l/m 2 min 0 min 260 W/m 25,7 km/h (4 Bft) 97,83 %
02.04.2022 17:36 6,3 C 8,9 C 2,8 C 55 % 1018,4 hPa 0,0 l/m 2 min 0 min 238 W/m 19,3 km/h (3 Bft) 100,00 %
02.04.2022 17:38 6,4 C 8,9 C 2,8 C 54 % 1018,3 hPa 0,0 l/m 2 min 0 min 215 W/m 19,3 km/h (3 Bft) 100,00 %
02.04.2022 17:40 6,4 C 8,3 C 2,8 C 54 % 1018,3 hPa 0,0 l/m 0 min 0 min 168 W/m 22,5 km/h (4 Bft) 97,87 %
02.04.2022 17:42 6,4 C 7,8 C 2,8 C 54 % 1018,4 hPa 0,0 l/m 0 min 0 min 118 W/m 22,5 km/h (4 Bft) 95,74 %
02.04.2022 17:44 6,3 C 6,7 C 2,2 C 54 % 1018,4 hPa 0,0 l/m 0 min 0 min 91 W/m 25,7 km/h (4 Bft) 97,83 %
02.04.2022 17:46 6,3 C 6,7 C 2,2 C 55 % 1018,4 hPa 0,0 l/m 0 min 0 min 90 W/m 29,0 km/h (5 Bft) 97,87 %
02.04.2022 17:48 6,2 C 6,1 C 2,2 C 55 % 1018,4 hPa 0,0 l/m 0 min 0 min 95 W/m 19,3 km/h (3 Bft) 100,00 %
02.04.2022 17:50 6,2 C 6,1 C 2,2 C 55 % 1018,4 hPa 0,0 l/m 0 min 0 min 101 W/m 19,3 km/h (3 Bft) 100,00 %
02.04.2022 17:52 6,1 C 6,1 C 2,2 C 55 % 1018,5 hPa 0,0 l/m 0 min 0 min 108 W/m 9,7 km/h (2 Bft) 97,87 %
02.04.2022 17:54 6,1 C 6,1 C 2,2 C 55 % 1018,4 hPa 0,0 l/m 0 min 0 min 125 W/m 22,5 km/h (4 Bft) 97,87 %
02.04.2022 17:56 6,0 C 6,7 C 2,2 C 54 % 1018,4 hPa 0,0 l/m 0 min 0 min 144 W/m 19,3 km/h (3 Bft) 100,00 %
02.04.2022 17:58 5,9 C 6,7 C 2,2 C 54 % 1018,5 hPa 0,0 l/m 0 min 0 min 143 W/m 25,7 km/h (4 Bft) 100,00 %
02.04.2022 18:00 5,9 C 6,7 C 1,7 C 54 % 1018,5 hPa 0,0 l/m 0 min 0 min 134 W/m 22,5 km/h (4 Bft) 95,74 %
02.04.2022 18:02 5,9 C 7,2 C 2,2 C 54 % 1018,5 hPa 0,0 l/m 2 min 0 min 186 W/m 22,5 km/h (4 Bft) 95,74 %
02.04.2022 18:04 5,9 C 7,2 C 2,2 C 54 % 1018,5 hPa 0,0 l/m 2 min 0 min 200 W/m 16,1 km/h (3 Bft) 100,00 %
02.04.2022 18:08 5,9 C 7,2 C 2,2 C 55 % 1018,6 hPa 0,0 l/m 4 min 0 min 199 W/m 22,5 km/h (4 Bft) 97,78 %
02.04.2022 18:10 6,0 C 7,2 C 2,2 C 54 % 1018,6 hPa 0,0 l/m 2 min 0 min 197 W/m 25,7 km/h (4 Bft) 95,65 %
02.04.2022 18:12 6,1 C 7,8 C 2,2 C 54 % 1018,6 hPa 0,0 l/m 2 min 0 min 224 W/m 22,5 km/h (4 Bft) 95,74 %
02.04.2022 18:14 6,1 C 7,8 C 2,2 C 54 % 1018,5 hPa 0,0 l/m 2 min 0 min 200 W/m 25,7 km/h (4 Bft) 97,87 %
02.04.2022 18:16 6,1 C 7,8 C 2,2 C 55 % 1018,6 hPa 0,0 l/m 2 min 0 min 165 W/m 32,2 km/h (5 Bft) 95,74 %
02.04.2022 18:18 6,0 C 6,7 C 2,2 C 54 % 1018,6 hPa 0,0 l/m 2 min 0 min 146 W/m 38,6 km/h (5 Bft) 97,87 %
02.04.2022 18:20 6,0 C 6,7 C 2,2 C 55 % 1018,6 hPa 0,0 l/m 2 min 0 min 138 W/m 16,1 km/h (3 Bft) 93,62 %
02.04.2022 18:22 5,9 C 6,7 C 2,2 C 55 % 1018,6 hPa 0,0 l/m 0 min 0 min 118 W/m 22,5 km/h (4 Bft) 93,48 %
02.04.2022 18:24 5,9 C 6,1 C 2,2 C 56 % 1018,7 hPa 0,0 l/m 0 min 0 min 113 W/m 22,5 km/h (4 Bft) 95,74 %
02.04.2022 18:26 5,9 C 6,1 C 1,7 C 56 % 1018,7 hPa 0,0 l/m 0 min 0 min 105 W/m 16,1 km/h (3 Bft) 95,74 %
02.04.2022 18:28 5,9 C 6,1 C 1,7 C 57 % 1018,8 hPa 0,0 l/m 0 min 0 min 98 W/m 12,9 km/h (3 Bft) 95,74 %
02.04.2022 18:30 5,9 C 6,1 C 1,7 C 57 % 1018,8 hPa 0,0 l/m 0 min 0 min 95 W/m 22,5 km/h (4 Bft) 93,62 %
02.04.2022 18:32 5,8 C 6,1 C 1,7 C 57 % 1018,8 hPa 0,0 l/m 0 min 0 min 87 W/m 16,1 km/h (3 Bft) 93,62 %
02.04.2022 18:34 5,8 C 6,1 C 1,7 C 57 % 1018,9 hPa 0,0 l/m 0 min 0 min 79 W/m 19,3 km/h (3 Bft) 100,00 %
02.04.2022 18:36 5,8 C 5,6 C 1,7 C 56 % 1018,9 hPa 0,0 l/m 0 min 0 min 73 W/m 38,6 km/h (5 Bft) 97,87 %
02.04.2022 18:38 5,8 C 5,6 C 1,7 C 56 % 1018,9 hPa 0,0 l/m 0 min 0 min 72 W/m 25,7 km/h (4 Bft) 91,49 %
02.04.2022 18:40 5,8 C 5,6 C 1,7 C 57 % 1019,0 hPa 0,0 l/m 0 min 0 min 73 W/m 22,5 km/h (4 Bft) 97,87 %
02.04.2022 18:42 5,7 C 5,6 C 1,7 C 57 % 1019,0 hPa 0,0 l/m 0 min 0 min 75 W/m 22,5 km/h (4 Bft) 97,87 %
02.04.2022 18:44 5,7 C 5,6 C 1,7 C 57 % 1019,1 hPa 0,0 l/m 0 min 0 min 78 W/m 12,9 km/h (3 Bft) 97,87 %
02.04.2022 18:46 5,7 C 5,6 C 1,7 C 57 % 1019,1 hPa 0,0 l/m 0 min 0 min 79 W/m 9,7 km/h (2 Bft) 97,96 %
02.04.2022 18:48 5,6 C 5,6 C 1,7 C 58 % 1019,1 hPa 0,0 l/m 0 min 0 min 77 W/m 9,7 km/h (2 Bft) 95,74 %
02.04.2022 18:50 5,6 C 5,6 C 1,7 C 58 % 1019,1 hPa 0,0 l/m 0 min 0 min 74 W/m 22,5 km/h (4 Bft) 95,74 %
02.04.2022 18:52 5,6 C 5,6 C 1,7 C 58 % 1019,1 hPa 0,0 l/m 0 min 0 min 70 W/m 12,9 km/h (3 Bft) 97,87 %
02.04.2022 18:54 5,6 C 5,6 C 1,7 C 58 % 1019,1 hPa 0,0 l/m 0 min 0 min 69 W/m 22,5 km/h (4 Bft) 97,87 %
02.04.2022 18:56 5,6 C 5,6 C 1,7 C 58 % 1019,1 hPa 0,0 l/m 0 min 0 min 66 W/m 25,7 km/h (4 Bft) 95,65 %
02.04.2022 18:58 5,6 C 5,6 C 1,7 C 58 % 1019,1 hPa 0,0 l/m 0 min 0 min 61 W/m 16,1 km/h (3 Bft) 95,74 %
02.04.2022 19:00 5,6 C 5,6 C 1,7 C 58 % 1019,1 hPa 0,0 l/m 0 min 0 min 59 W/m 9,7 km/h (2 Bft) 97,87 %
02.04.2022 19:02 5,6 C 5,6 C 1,7 C 59 % 1019,2 hPa 0,0 l/m 0 min 0 min 54 W/m 12,9 km/h (3 Bft) 97,62 %
02.04.2022 19:04 5,6 C 5,6 C 1,7 C 58 % 1019,2 hPa 0,0 l/m 0 min 0 min 51 W/m 16,1 km/h (3 Bft) 100,00 %
02.04.2022 19:06 5,6 C 5,6 C 1,1 C 58 % 1019,2 hPa 0,0 l/m 0 min 0 min 47 W/m 25,7 km/h (4 Bft) 100,00 %
02.04.2022 19:08 5,6 C 5,0 C 1,1 C 58 % 1019,2 hPa 0,0 l/m 0 min 0 min 43 W/m 25,7 km/h (4 Bft) 57,45 %
02.04.2022 19:10 5,6 C 5,0 C 1,1 C 58 % 1019,2 hPa 0,0 l/m 0 min 0 min 40 W/m 16,1 km/h (3 Bft) 100,00 %
02.04.2022 19:12 5,5 C 5,0 C 1,1 C 58 % 1019,2 hPa 0,0 l/m 0 min 0 min 36 W/m 16,1 km/h (3 Bft) 100,00 %
02.04.2022 19:14 5,5 C 5,0 C 1,1 C 58 % 1019,2 hPa 0,0 l/m 0 min 0 min 32 W/m 6,4 km/h (2 Bft) 97,87 %
02.04.2022 19:16 5,4 C 5,0 C 1,1 C 58 % 1019,2 hPa 0,0 l/m 0 min 0 min 27 W/m 12,9 km/h (3 Bft) 100,00 %
02.04.2022 19:18 5,4 C 5,0 C 1,1 C 58 % 1019,2 hPa 0,0 l/m 0 min 0 min 24 W/m 12,9 km/h (3 Bft) 100,00 %
02.04.2022 19:20 5,4 C 5,0 C 1,1 C 58 % 1019,2 hPa 0,0 l/m 0 min 0 min 22 W/m 19,3 km/h (3 Bft) 100,00 %
02.04.2022 19:22 5,4 C 5,0 C 1,1 C 58 % 1019,2 hPa 0,0 l/m 0 min 0 min 19 W/m 12,9 km/h (3 Bft) 100,00 %
02.04.2022 19:24 5,3 C 5,0 C 1,1 C 58 % 1019,2 hPa 0,0 l/m 0 min 0 min 18 W/m 6,4 km/h (2 Bft) 100,00 %
02.04.2022 19:26 5,3 C 5,0 C 1,1 C 59 % 1019,3 hPa 0,0 l/m 0 min 0 min 18 W/m 12,9 km/h (3 Bft) 100,00 %
02.04.2022 19:28 5,3 C 5,0 C 1,1 C 59 % 1019,3 hPa 0,0 l/m 0 min 0 min 16 W/m 9,7 km/h (2 Bft) 100,00 %
02.04.2022 19:30 5,3 C 5,0 C 1,1 C 59 % 1019,3 hPa 0,0 l/m 0 min 0 min 16 W/m 12,9 km/h (3 Bft) 100,00 %
02.04.2022 19:32 5,3 C 5,0 C 1,1 C 59 % 1019,3 hPa 0,0 l/m 0 min 0 min 16 W/m 12,9 km/h (3 Bft) 100,00 %
02.04.2022 19:34 5,3 C 5,0 C 1,1 C 59 % 1019,3 hPa 0,0 l/m 0 min 0 min 16 W/m 12,9 km/h (3 Bft) 100,00 %
02.04.2022 19:36 5,3 C 4,4 C 1,1 C 59 % 1019,4 hPa 0,0 l/m 0 min 0 min 17 W/m 19,3 km/h (3 Bft) 100,00 %
02.04.2022 19:38 5,2 C 4,4 C 1,1 C 59 % 1019,4 hPa 0,0 l/m 0 min 0 min 18 W/m 19,3 km/h (3 Bft) 100,00 %
02.04.2022 19:40 5,2 C 4,4 C 0,6 C 59 % 1019,5 hPa 0,0 l/m 0 min 0 min 18 W/m 19,3 km/h (3 Bft) 97,87 %
02.04.2022 19:42 5,2 C 4,4 C 0,6 C 59 % 1019,4 hPa 0,0 l/m 0 min 0 min 17 W/m 9,7 km/h (2 Bft) 97,87 %
02.04.2022 19:44 5,1 C 4,4 C 0,6 C 59 % 1019,5 hPa 0,0 l/m 0 min 0 min 16 W/m 29,0 km/h (5 Bft) 97,83 %
02.04.2022 19:46 5,1 C 4,4 C 0,6 C 59 % 1019,5 hPa 0,0 l/m 0 min 0 min 16 W/m 12,9 km/h (3 Bft) 95,74 %
02.04.2022 19:48 5,1 C 4,4 C 0,6 C 59 % 1019,5 hPa 0,0 l/m 0 min 0 min 16 W/m 9,7 km/h (2 Bft) 97,87 %
02.04.2022 19:50 5,0 C 4,4 C 0,6 C 59 % 1019,5 hPa 0,0 l/m 0 min 0 min 15 W/m 22,5 km/h (4 Bft) 97,87 %
02.04.2022 19:52 4,9 C 4,4 C 0,6 C 59 % 1019,6 hPa 0,0 l/m 0 min 0 min 14 W/m 12,9 km/h (3 Bft) 97,87 %
02.04.2022 19:54 4,9 C 4,4 C 0,6 C 59 % 1019,6 hPa 0,0 l/m 0 min 0 min 13 W/m 9,7 km/h (2 Bft) 97,87 %
02.04.2022 19:56 4,9 C 4,4 C 0,6 C 59 % 1019,7 hPa 0,0 l/m 0 min 0 min 12 W/m 16,1 km/h (3 Bft) 93,48 %
02.04.2022 19:58 4,8 C 3,9 C 0,6 C 60 % 1019,6 hPa 0,0 l/m 0 min 0 min 11 W/m 9,7 km/h (2 Bft) 93,62 %
02.04.2022 20:00 4,8 C 3,9 C 0,6 C 60 % 1019,7 hPa 0,0 l/m 0 min 0 min 10 W/m 9,7 km/h (2 Bft) 95,74 %
02.04.2022 20:02 4,8 C 3,9 C 0,6 C 60 % 1019,8 hPa 0,0 l/m 0 min 0 min 8 W/m 12,9 km/h (3 Bft) 95,74 %
02.04.2022 20:04 4,8 C 3,9 C 0,6 C 60 % 1019,8 hPa 0,0 l/m 0 min 0 min 7 W/m 25,7 km/h (4 Bft) 95,74 %
02.04.2022 20:06 4,7 C 3,9 C 0,0 C 60 % 1019,9 hPa 0,0 l/m 0 min 0 min 6 W/m 12,9 km/h (3 Bft) 95,74 %
02.04.2022 20:08 4,7 C 3,9 C 0,0 C 60 % 1019,8 hPa 0,0 l/m 0 min 0 min 5 W/m 19,3 km/h (3 Bft) 95,65 %
02.04.2022 20:10 4,6 C 3,9 C 0,6 C 60 % 1019,8 hPa 0,0 l/m 0 min 0 min 5 W/m 12,9 km/h (3 Bft) 95,74 %
02.04.2022 20:12 4,6 C 3,9 C 0,0 C 60 % 1019,9 hPa 0,0 l/m 0 min 0 min 0 W/m 16,1 km/h (3 Bft) 95,74 %
02.04.2022 20:14 4,6 C 3,9 C 0,0 C 60 % 1019,9 hPa 0,0 l/m 0 min 0 min 0 W/m 9,7 km/h (2 Bft) 52,17 %
02.04.2022 20:16 4,6 C 3,9 C 0,0 C 60 % 1019,9 hPa 0,0 l/m 0 min 0 min 0 W/m 16,1 km/h (3 Bft) 91,49 %
02.04.2022 20:18 4,5 C 3,9 C 0,0 C 59 % 1019,9 hPa 0,0 l/m 0 min 0 min 0 W/m 12,9 km/h (3 Bft) 95,74 %
02.04.2022 20:20 4,5 C 3,9 C 0,0 C 60 % 1019,9 hPa 0,0 l/m 0 min 0 min 0 W/m 6,4 km/h (2 Bft) 95,65 %
02.04.2022 20:22 4,5 C 3,9 C 0,0 C 60 % 1020,0 hPa 0,0 l/m 0 min 0 min 0 W/m 12,9 km/h (3 Bft) 95,74 %
02.04.2022 20:24 4,4 C 3,9 C 0,0 C 60 % 1020,0 hPa 0,0 l/m 0 min 0 min 0 W/m 16,1 km/h (3 Bft) 95,74 %
02.04.2022 20:26 4,4 C 3,9 C 0,0 C 60 % 1020,0 hPa 0,0 l/m 0 min 0 min 0 W/m 9,7 km/h (2 Bft) 95,74 %
02.04.2022 20:28 4,4 C 3,3 C 0,0 C 60 % 1020,1 hPa 0,0 l/m 0 min 0 min 0 W/m 9,7 km/h (2 Bft) 97,87 %
02.04.2022 20:30 4,3 C 3,3 C 0,0 C 60 % 1020,1 hPa 0,0 l/m 0 min 0 min 0 W/m 9,7 km/h (2 Bft) 97,87 %
02.04.2022 20:32 4,3 C 3,3 C 0,0 C 61 % 1020,1 hPa 0,0 l/m 0 min 0 min 0 W/m 6,4 km/h (2 Bft) 95,65 %
02.04.2022 20:34 4,3 C 3,3 C 0,0 C 61 % 1020,1 hPa 0,0 l/m 0 min 0 min 0 W/m 9,7 km/h (2 Bft) 97,87 %
02.04.2022 20:36 4,3 C 3,3 C -0,6 C 61 % 1020,2 hPa 0,0 l/m 0 min 0 min 0 W/m 6,4 km/h (2 Bft) 95,74 %
02.04.2022 20:38 4,3 C 3,3 C -0,6 C 61 % 1020,2 hPa 0,0 l/m 0 min 0 min 0 W/m 9,7 km/h (2 Bft) 97,87 %
02.04.2022 20:40 4,2 C 3,3 C -0,6 C 61 % 1020,2 hPa 0,0 l/m 0 min 0 min 0 W/m 6,4 km/h (2 Bft) 100,00 %
02.04.2022 20:42 4,2 C 2,8 C -0,6 C 62 % 1020,3 hPa 0,0 l/m 0 min 0 min 0 W/m 6,4 km/h (2 Bft) 95,65 %
02.04.2022 20:44 4,1 C 2,8 C -0,6 C 62 % 1020,3 hPa 0,0 l/m 0 min 0 min 0 W/m 12,9 km/h (3 Bft) 95,74 %
02.04.2022 20:46 4,1 C 2,8 C -0,6 C 62 % 1020,4 hPa 0,0 l/m 0 min 0 min 0 W/m 9,7 km/h (2 Bft) 97,87 %
02.04.2022 20:48 4,1 C 2,8 C -0,6 C 62 % 1020,4 hPa 0,0 l/m 0 min 0 min 0 W/m 9,7 km/h (2 Bft) 97,87 %
02.04.2022 20:50 4,0 C 2,8 C -0,6 C 63 % 1020,4 hPa 0,0 l/m 0 min 0 min 0 W/m 12,9 km/h (3 Bft) 95,74 %
02.04.2022 20:52 4,0 C 2,8 C -0,6 C 63 % 1020,4 hPa 0,0 l/m 0 min 0 min 0 W/m 12,9 km/h (3 Bft) 97,87 %
02.04.2022 20:54 3,9 C 2,8 C -0,6 C 64 % 1020,4 hPa 0,0 l/m 0 min 0 min 0 W/m 16,1 km/h (3 Bft) 97,83 %
02.04.2022 20:56 3,9 C 2,8 C -0,6 C 64 % 1020,4 hPa 0,0 l/m 0 min 0 min 0 W/m 12,9 km/h (3 Bft) 97,87 %
02.04.2022 20:58 3,9 C 2,8 C -0,6 C 65 % 1020,5 hPa 0,0 l/m 0 min 0 min 0 W/m 9,7 km/h (2 Bft) 97,87 %
02.04.2022 21:00 3,8 C 2,8 C -0,6 C 65 % 1020,4 hPa 0,0 l/m 0 min 0 min 0 W/m 9,7 km/h (2 Bft) 95,74 %
02.04.2022 21:02 3,8 C 2,8 C -0,6 C 66 % 1020,5 hPa 0,0 l/m 0 min 0 min 0 W/m 12,9 km/h (3 Bft) 97,87 %
02.04.2022 21:04 3,8 C 2,8 C -0,6 C 65 % 1020,5 hPa 0,0 l/m 0 min 0 min 0 W/m 6,4 km/h (2 Bft) 97,87 %
02.04.2022 21:06 3,7 C 2,8 C -0,6 C 66 % 1020,6 hPa 0,0 l/m 0 min 0 min 0 W/m 12,9 km/h (3 Bft) 95,74 %
02.04.2022 21:08 3,7 C 2,8 C -0,6 C 66 % 1020,6 hPa 0,0 l/m 0 min 0 min 0 W/m 6,4 km/h (2 Bft) 97,83 %
02.04.2022 21:10 3,7 C 2,8 C -0,6 C 66 % 1020,6 hPa 0,0 l/m 0 min 0 min 0 W/m 6,4 km/h (2 Bft) 97,87 %
02.04.2022 21:12 3,7 C 2,8 C -0,6 C 66 % 1020,6 hPa 0,0 l/m 0 min 0 min 0 W/m 19,3 km/h (3 Bft) 97,87 %
02.04.2022 21:14 3,6 C 2,8 C -0,6 C 67 % 1020,6 hPa 0,0 l/m 0 min 0 min 0 W/m 19,3 km/h (3 Bft) 97,87 %
02.04.2022 21:16 3,6 C 2,8 C -0,6 C 67 % 1020,7 hPa 0,0 l/m 0 min 0 min 0 W/m 12,9 km/h (3 Bft) 97,87 %
02.04.2022 21:18 3,6 C 2,8 C -0,6 C 67 % 1020,6 hPa 0,0 l/m 0 min 0 min 0 W/m 6,4 km/h (2 Bft) 95,65 %
02.04.2022 21:20 3,6 C 2,8 C -0,6 C 67 % 1020,7 hPa 0,0 l/m 0 min 0 min 0 W/m 12,9 km/h (3 Bft) 100,00 %
02.04.2022 21:22 3,6 C 2,8 C -1,1 C 67 % 1020,7 hPa 0,0 l/m 0 min 0 min 0 W/m 6,4 km/h (2 Bft) 100,00 %
02.04.2022 21:24 3,6 C 2,8 C -1,1 C 67 % 1020,7 hPa 0,0 l/m 0 min 0 min 0 W/m 6,4 km/h (2 Bft) 100,00 %
02.04.2022 21:26 3,5 C 2,8 C -1,1 C 67 % 1020,7 hPa 0,0 l/m 0 min 0 min 0 W/m 6,4 km/h (2 Bft) 100,00 %
02.04.2022 21:28 3,5 C 2,8 C -1,1 C 67 % 1020,8 hPa 0,0 l/m 0 min 0 min 0 W/m 9,7 km/h (2 Bft) 100,00 %
02.04.2022 21:30 3,4 C 2,2 C -1,1 C 67 % 1020,8 hPa 0,0 l/m 0 min 0 min 0 W/m 9,7 km/h (2 Bft) 97,83 %
02.04.2022 21:32 3,4 C 2,2 C -1,1 C 67 % 1020,8 hPa 0,0 l/m 0 min 0 min 0 W/m 6,4 km/h (2 Bft) 100,00 %
02.04.2022 21:34 3,4 C 2,2 C -1,1 C 67 % 1020,9 hPa 0,0 l/m 0 min 0 min 0 W/m 6,4 km/h (2 Bft) 100,00 %
02.04.2022 21:36 3,3 C 2,2 C -1,1 C 67 % 1020,9 hPa 0,0 l/m 0 min 0 min 0 W/m 6,4 km/h (2 Bft) 100,00 %
02.04.2022 21:38 3,3 C 2,2 C -1,1 C 68 % 1021,0 hPa 0,0 l/m 0 min 0 min 0 W/m 6,4 km/h (2 Bft) 100,00 %
02.04.2022 21:40 3,3 C 2,2 C -1,1 C 68 % 1020,9 hPa 0,0 l/m 0 min 0 min 0 W/m 12,9 km/h (3 Bft) 97,87 %
02.04.2022 21:42 3,3 C 2,2 C -1,1 C 68 % 1020,9 hPa 0,0 l/m 0 min 0 min 0 W/m 9,7 km/h (2 Bft) 97,83 %
02.04.2022 21:44 3,2 C 2,2 C -1,1 C 68 % 1021,0 hPa 0,0 l/m 0 min 0 min 0 W/m 6,4 km/h (2 Bft) 97,87 %
02.04.2022 21:46 3,2 C 2,2 C -1,1 C 67 % 1021,0 hPa 0,0 l/m 0 min 0 min 0 W/m 6,4 km/h (2 Bft) 97,87 %
02.04.2022 21:48 3,2 C 2,2 C -1,1 C 67 % 1021,0 hPa 0,0 l/m 0 min 0 min 0 W/m 12,9 km/h (3 Bft) 97,87 %
02.04.2022 21:50 3,2 C 2,2 C -1,1 C 67 % 1021,0 hPa 0,0 l/m 0 min 0 min 0 W/m 6,4 km/h (2 Bft) 97,87 %
02.04.2022 21:52 3,2 C 2,2 C -1,1 C 67 % 1021,1 hPa 0,0 l/m 0 min 0 min 0 W/m 6,4 km/h (2 Bft) 95,74 %
02.04.2022 21:54 3,1 C 2,2 C -1,1 C 67 % 1021,1 hPa 0,0 l/m 0 min 0 min 0 W/m 3,2 km/h (1 Bft) 95,65 %
02.04.2022 21:56 3,1 C 2,2 C -1,1 C 67 % 1021,1 hPa 0,0 l/m 0 min 0 min 0 W/m 12,9 km/h (3 Bft) 97,87 %
02.04.2022 21:58 3,1 C 2,2 C -1,7 C 68 % 1021,1 hPa 0,0 l/m 0 min 0 min 0 W/m 9,7 km/h (2 Bft) 97,87 %
02.04.2022 22:00 3,1 C 2,2 C -1,7 C 68 % 1021,1 hPa 0,0 l/m 0 min 0 min 0 W/m 9,7 km/h (2 Bft) 97,87 %
02.04.2022 22:02 3,1 C 1,7 C -1,7 C 68 % 1021,2 hPa 0,0 l/m 0 min 0 min 0 W/m 3,2 km/h (1 Bft) 97,87 %
02.04.2022 22:04 3,0 C 1,7 C -1,7 C 68 % 1021,2 hPa 0,0 l/m 0 min 0 min 0 W/m 12,9 km/h (3 Bft) 54,35 %
02.04.2022 22:06 2,9 C 1,7 C -1,7 C 68 % 1021,2 hPa 0,0 l/m 0 min 0 min 0 W/m 9,7 km/h (2 Bft) 97,83 %
02.04.2022 22:08 2,9 C 1,7 C -1,7 C 68 % 1021,2 hPa 0,0 l/m 0 min 0 min 0 W/m 6,4 km/h (2 Bft) 100,00 %
02.04.2022 22:10 2,9 C 1,7 C -1,7 C 68 % 1021,2 hPa 0,0 l/m 0 min 0 min 0 W/m 6,4 km/h (2 Bft) 100,00 %
02.04.2022 22:12 2,8 C 1,7 C -1,7 C 69 % 1021,2 hPa 0,0 l/m 0 min 0 min 0 W/m 3,2 km/h (1 Bft) 100,00 %
02.04.2022 22:14 2,8 C 1,7 C -1,7 C 69 % 1021,2 hPa 0,0 l/m 0 min 0 min 0 W/m 3,2 km/h (1 Bft) 100,00 %
02.04.2022 22:16 2,8 C 1,7 C -1,7 C 69 % 1021,2 hPa 0,0 l/m 0 min 0 min 0 W/m 6,4 km/h (2 Bft) 97,83 %
02.04.2022 22:18 2,8 C 1,7 C -1,7 C 69 % 1021,3 hPa 0,0 l/m 0 min 0 min 0 W/m 12,9 km/h (3 Bft) 100,00 %
02.04.2022 22:20 2,7 C 1,7 C -1,7 C 69 % 1021,3 hPa 0,0 l/m 0 min 0 min 0 W/m 12,9 km/h (3 Bft) 100,00 %
02.04.2022 22:22 2,7 C 1,7 C -1,7 C 69 % 1021,3 hPa 0,0 l/m 0 min 0 min 0 W/m 3,2 km/h (1 Bft) 97,87 %
02.04.2022 22:24 2,7 C 1,7 C -1,7 C 69 % 1021,3 hPa 0,0 l/m 0 min 0 min 0 W/m 12,9 km/h (3 Bft) 97,87 %
02.04.2022 22:26 2,7 C 1,7 C -1,7 C 69 % 1021,3 hPa 0,0 l/m 0 min 0 min 0 W/m 6,4 km/h (2 Bft) 100,00 %
02.04.2022 22:28 2,6 C 1,7 C -1,7 C 69 % 1021,3 hPa 0,0 l/m 0 min 0 min 0 W/m 6,4 km/h (2 Bft) 100,00 %
02.04.2022 22:30 2,6 C 1,7 C -1,7 C 69 % 1021,4 hPa 0,0 l/m 0 min 0 min 0 W/m 12,9 km/h (3 Bft) 95,74 %
02.04.2022 22:32 2,6 C 1,7 C -1,7 C 69 % 1021,4 hPa 0,0 l/m 0 min 0 min 0 W/m 9,7 km/h (2 Bft) 100,00 %
02.04.2022 22:34 2,6 C 1,7 C -1,7 C 69 % 1021,4 hPa 0,0 l/m 0 min 0 min 0 W/m 12,9 km/h (3 Bft) 100,00 %
02.04.2022 22:36 2,6 C 1,7 C -1,7 C 69 % 1021,4 hPa 0,0 l/m 0 min 0 min 0 W/m 9,7 km/h (2 Bft) 98,11 %
02.04.2022 22:38 2,5 C 1,7 C -1,7 C 69 % 1021,4 hPa 0,0 l/m 0 min 0 min 0 W/m 6,4 km/h (2 Bft) 97,96 %
02.04.2022 22:40 2,5 C 1,7 C -1,7 C 69 % 1021,4 hPa 0,0 l/m 0 min 0 min 0 W/m 9,7 km/h (2 Bft) 100,00 %
02.04.2022 22:42 2,5 C 1,7 C -1,7 C 69 % 1021,4 hPa 0,0 l/m 0 min 0 min 0 W/m 6,4 km/h (2 Bft) 100,00 %
02.04.2022 22:44 2,5 C 1,7 C -1,7 C 69 % 1021,4 hPa 0,0 l/m 0 min 0 min 0 W/m 6,4 km/h (2 Bft) 100,00 %
02.04.2022 22:46 2,4 C 1,7 C -1,7 C 69 % 1021,4 hPa 0,0 l/m 0 min 0 min 0 W/m 6,4 km/h (2 Bft) 100,00 %
02.04.2022 22:48 2,4 C 1,7 C -1,7 C 69 % 1021,4 hPa 0,0 l/m 0 min 0 min 0 W/m 6,4 km/h (2 Bft) 97,87 %
02.04.2022 22:50 2,4 C 1,7 C -1,7 C 69 % 1021,5 hPa 0,0 l/m 0 min 0 min 0 W/m 9,7 km/h (2 Bft) 97,87 %
02.04.2022 22:52 2,4 C 1,7 C -1,7 C 69 % 1021,5 hPa 0,0 l/m 0 min 0 min 0 W/m 9,7 km/h (2 Bft) 54,55 %
02.04.2022 22:54 2,4 C 1,7 C -1,7 C 69 % 1021,5 hPa 0,0 l/m 0 min 0 min 0 W/m 12,9 km/h (3 Bft) 97,50 %
02.04.2022 22:56 2,4 C 1,7 C -1,7 C 69 % 1021,5 hPa 0,0 l/m 0 min 0 min 0 W/m 12,9 km/h (3 Bft) 97,87 %
02.04.2022 22:58 2,4 C 1,7 C -1,7 C 69 % 1021,5 hPa 0,0 l/m 0 min 0 min 0 W/m 6,4 km/h (2 Bft) 97,87 %
02.04.2022 23:00 2,4 C 1,7 C -1,7 C 69 % 1021,6 hPa 0,0 l/m 0 min 0 min 0 W/m 6,4 km/h (2 Bft) 97,87 %
02.04.2022 23:02 2,4 C 1,7 C -1,7 C 69 % 1021,6 hPa 0,0 l/m 0 min 0 min 0 W/m 6,4 km/h (2 Bft) 97,87 %
02.04.2022 23:04 2,4 C 1,7 C -1,7 C 69 % 1021,6 hPa 0,0 l/m 0 min 0 min 0 W/m 6,4 km/h (2 Bft) 97,83 %
02.04.2022 23:06 2,3 C 1,7 C -1,7 C 69 % 1021,6 hPa 0,0 l/m 0 min 0 min 0 W/m 9,7 km/h (2 Bft) 95,74 %
02.04.2022 23:08 2,3 C 1,7 C -1,7 C 69 % 1021,6 hPa 0,0 l/m 0 min 0 min 0 W/m 16,1 km/h (3 Bft) 95,74 %
02.04.2022 23:10 2,4 C 1,7 C -1,7 C 70 % 1021,6 hPa 0,0 l/m 0 min 0 min 0 W/m 9,7 km/h (2 Bft) 95,74 %
02.04.2022 23:12 2,3 C 1,7 C -1,7 C 70 % 1021,6 hPa 0,0 l/m 0 min 0 min 0 W/m 12,9 km/h (3 Bft) 93,62 %
02.04.2022 23:14 2,3 C 1,7 C -1,7 C 70 % 1021,7 hPa 0,0 l/m 0 min 0 min 0 W/m 9,7 km/h (2 Bft) 93,48 %
02.04.2022 23:16 2,3 C 1,7 C -1,7 C 70 % 1021,6 hPa 0,0 l/m 0 min 0 min 0 W/m 16,1 km/h (3 Bft) 95,74 %
02.04.2022 23:18 2,3 C 1,7 C -1,7 C 69 % 1021,7 hPa 0,0 l/m 0 min 0 min 0 W/m 12,9 km/h (3 Bft) 95,74 %
02.04.2022 23:20 2,3 C 1,7 C -2,2 C 70 % 1021,8 hPa 0,0 l/m 0 min 0 min 0 W/m 16,1 km/h (3 Bft) 93,62 %
02.04.2022 23:22 2,3 C 1,1 C -2,2 C 70 % 1021,8 hPa 0,0 l/m 0 min 0 min 0 W/m 9,7 km/h (2 Bft) 91,49 %
02.04.2022 23:24 2,3 C 1,1 C -2,2 C 70 % 1021,8 hPa 0,0 l/m 0 min 0 min 0 W/m 9,7 km/h (2 Bft) 93,62 %
02.04.2022 23:26 2,2 C 1,1 C -2,2 C 70 % 1021,8 hPa 0,0 l/m 0 min 0 min 0 W/m 12,9 km/h (3 Bft) 86,96 %
02.04.2022 23:28 2,2 C 1,1 C -2,2 C 70 % 1021,8 hPa 0,0 l/m 0 min 0 min 0 W/m 9,7 km/h (2 Bft) 95,74 %
02.04.2022 23:30 2,2 C 1,7 C -2,2 C 70 % 1021,8 hPa 0,0 l/m 0 min 0 min 0 W/m 22,5 km/h (4 Bft) 95,74 %
02.04.2022 23:32 2,2 C 1,7 C -1,7 C 70 % 1021,8 hPa 0,0 l/m 0 min 0 min 0 W/m 12,9 km/h (3 Bft) 97,87 %
02.04.2022 23:34 2,3 C 1,7 C -1,7 C 70 % 1021,8 hPa 0,0 l/m 0 min 0 min 0 W/m 9,7 km/h (2 Bft) 95,74 %
02.04.2022 23:36 2,3 C 1,7 C -1,7 C 70 % 1021,8 hPa 0,0 l/m 0 min 0 min 0 W/m 19,3 km/h (3 Bft) 94,34 %
02.04.2022 23:38 2,3 C 1,7 C -1,7 C 70 % 1021,8 hPa 0,0 l/m 0 min 0 min 0 W/m 12,9 km/h (3 Bft) 95,92 %
02.04.2022 23:40 2,3 C 1,7 C -1,7 C 70 % 1021,9 hPa 0,0 l/m 0 min 0 min 0 W/m 12,9 km/h (3 Bft) 93,62 %
02.04.2022 23:42 2,3 C 1,7 C -1,7 C 70 % 1021,9 hPa 0,0 l/m 0 min 0 min 0 W/m 16,1 km/h (3 Bft) 95,74 %
02.04.2022 23:44 2,4 C 1,7 C -1,7 C 70 % 1021,9 hPa 0,0 l/m 0 min 0 min 0 W/m 9,7 km/h (2 Bft) 95,74 %
02.04.2022 23:46 2,4 C 1,7 C -1,7 C 70 % 1021,9 hPa 0,0 l/m 0 min 0 min 0 W/m 12,9 km/h (3 Bft) 95,65 %
02.04.2022 23:48 2,4 C 1,7 C -1,7 C 70 % 1021,9 hPa 0,0 l/m 0 min 0 min 0 W/m 16,1 km/h (3 Bft) 95,74 %
02.04.2022 23:50 2,4 C 1,7 C -1,7 C 70 % 1021,9 hPa 0,0 l/m 0 min 0 min 0 W/m 6,4 km/h (2 Bft) 97,87 %
02.04.2022 23:52 2,4 C 1,7 C -1,7 C 70 % 1021,9 hPa 0,0 l/m 0 min 0 min 0 W/m 12,9 km/h (3 Bft) 97,87 %
02.04.2022 23:54 2,3 C 1,7 C -1,7 C 70 % 1021,9 hPa 0,0 l/m 0 min 0 min 0 W/m 9,7 km/h (2 Bft) 97,87 %
02.04.2022 23:56 2,3 C 1,7 C -1,7 C 70 % 1021,9 hPa 0,0 l/m 0 min 0 min 0 W/m 16,1 km/h (3 Bft) 97,87 %
02.04.2022 23:58 2,3 C 1,7 C -1,7 C 70 % 1021,9 hPa 0,0 l/m 0 min 0 min 0 W/m 12,9 km/h (3 Bft) 95,65 %
_ Min-Zeit 00:08 00:00 01:08 17:34 00:00 - - - - 14:40 06:56
Minimum _ 0,6 C 0,0 C -2,8 C 54 % 1013,3 hPa - - - - 0,0 km/h (0 Bft) 45,95 %
_ Max-Zeit 16:58 16:52 16:52 00:04 23:40 00:00 12:08 00:12 16:20 06:40 00:46
Maximum _ 6,9 C 12,8 C 3,9 C 97 % 1021,9 hPa 0,0 l/m 4 min 2 min 571 W/m 45,1 km/h
O (6 Bft)
100,00 %
Durchschnitt _ 2,9 C 3,0 C -0,6 C 76 % 1017,1 hPa #0,0 l/m #2:00 h #2 min. 175 W/m 17,2 km/h (3 Bft) 96,82 %
© 2022 W. Hausmann